Time,TemperatureF,DewpointF,PressureIn,WindDirection,WindDirectionDegrees,WindSpeedMPH,WindSpeedGustMPH,Humidity,HourlyPrecipIn,Conditions,Clouds,dailyrainin,SoftwareType,DateUTC
2013-06-11 00:01:00,49.5,51.3,29.98,NNE,15,0.0,3.0,71,0.00,,,0.00,meteohub,2013-06-11 07:01:00,
2013-06-11 00:02:00,49.5,50.0,29.98,NNE,15,0.0,0.0,70,0.00,,,0.00,meteohub,2013-06-11 07:02:00,
2013-06-11 00:03:00,49.5,50.0,29.98,NNE,15,0.0,0.0,70,0.00,,,0.00,meteohub,2013-06-11 07:03:00,
2013-06-11 00:06:00,49.3,51.3,29.98,NNE,15,0.0,2.0,71,0.00,,,0.00,meteohub,2013-06-11 07:06:00,
2013-06-11 00:09:00,49.5,50.0,29.98,NNE,15,0.0,0.0,70,0.00,,,0.00,meteohub,2013-06-11 07:09:00,
2013-06-11 00:11:00,49.3,51.3,29.98,NNE,15,0.0,2.0,71,0.00,,,0.00,meteohub,2013-06-11 07:11:00,
2013-06-11 00:12:00,49.5,50.0,29.98,NNE,15,0.0,0.0,70,0.00,,,0.00,meteohub,2013-06-11 07:12:00,
2013-06-11 00:13:00,49.5,49.8,29.98,NNE,15,0.0,0.0,70,0.00,,,0.00,meteohub,2013-06-11 07:13:00,
2013-06-11 00:17:00,49.3,51.3,29.98,NNE,15,0.0,0.0,70,0.00,,,0.00,meteohub,2013-06-11 07:17:00,
2013-06-11 00:21:00,49.6,49.8,29.98,NNE,15,0.0,2.0,68,0.00,,,0.00,meteohub,2013-06-11 07:21:00,
2013-06-11 00:22:00,49.5,51.3,29.98,NNE,15,0.0,0.0,70,0.00,,,0.00,meteohub,2013-06-11 07:22:00,
2013-06-11 00:26:00,49.8,49.8,29.98,NNE,15,0.0,2.0,69,0.00,,,0.00,meteohub,2013-06-11 07:26:00,
2013-06-11 00:27:00,49.5,51.1,29.98,NNE,15,0.0,1.0,70,0.00,,,0.00,meteohub,2013-06-11 07:27:00,
2013-06-11 00:29:00,49.8,49.8,29.98,NNE,15,0.0,2.0,69,0.00,,,0.00,meteohub,2013-06-11 07:29:00,
2013-06-11 00:32:00,49.8,49.8,29.98,NNE,15,0.0,2.0,69,0.00,,,0.00,meteohub,2013-06-11 07:32:00,
2013-06-11 00:33:00,49.5,51.1,29.98,NNE,15,0.0,1.0,71,0.00,,,0.00,meteohub,2013-06-11 07:33:00,
2013-06-11 00:36:00,49.8,49.8,29.98,NNE,15,0.0,0.0,69,0.00,,,0.00,meteohub,2013-06-11 07:36:00,
2013-06-11 00:37:00,49.8,49.6,29.98,NNE,15,0.0,0.0,69,0.00,,,0.00,meteohub,2013-06-11 07:37:00,
2013-06-11 00:38:00,49.5,51.1,29.98,NNE,15,0.0,0.0,70,0.00,,,0.00,meteohub,2013-06-11 07:38:00,
2013-06-11 00:42:00,50.0,49.6,29.98,NNE,15,0.0,0.0,68,0.00,,,0.00,meteohub,2013-06-11 07:42:00,
2013-06-11 00:43:00,49.5,51.1,29.98,NNE,15,0.0,0.0,70,0.00,,,0.00,meteohub,2013-06-11 07:43:00,
2013-06-11 00:44:00,50.2,49.6,29.98,NNE,15,0.0,0.0,68,0.00,,,0.00,meteohub,2013-06-11 07:44:00,
2013-06-11 00:45:00,50.2,49.6,29.98,NNE,15,0.0,0.0,68,0.00,,,0.00,meteohub,2013-06-11 07:45:00,
2013-06-11 00:47:00,50.2,49.6,29.99,NNE,15,0.0,0.0,68,0.00,,,0.00,meteohub,2013-06-11 07:47:00,
2013-06-11 00:49:00,49.6,50.9,29.98,NNE,15,0.0,0.0,70,0.00,,,0.00,meteohub,2013-06-11 07:49:00,
2013-06-11 00:51:00,50.0,49.6,29.99,NNE,15,0.0,0.0,69,0.00,,,0.00,meteohub,2013-06-11 07:51:00,
2013-06-11 00:52:00,50.0,49.6,29.99,NNE,15,0.0,0.0,69,0.00,,,0.00,meteohub,2013-06-11 07:52:00,
2013-06-11 00:53:00,49.8,49.6,29.99,NNE,15,0.0,0.0,69,0.00,,,0.00,meteohub,2013-06-11 07:53:00,
2013-06-11 00:54:00,49.6,50.4,29.98,NNE,15,0.0,0.0,70,0.00,,,0.00,meteohub,2013-06-11 07:54:00,
2013-06-11 00:56:00,49.8,49.6,29.99,NNE,15,0.0,0.0,69,0.00,,,0.00,meteohub,2013-06-11 07:56:00,
2013-06-11 00:57:00,49.8,49.6,29.99,NNE,15,0.0,0.0,69,0.00,,,0.00,meteohub,2013-06-11 07:57:00,
2013-06-11 01:00:00,49.5,50.4,29.98,NNE,15,0.0,0.0,70,0.00,,,0.00,meteohub,2013-06-11 08:00:00,
2013-06-11 01:03:00,50.0,49.6,29.99,NNE,15,0.0,0.0,68,0.00,,,0.00,meteohub,2013-06-11 08:03:00,
2013-06-11 01:04:00,50.0,49.6,29.99,NNE,15,0.0,0.0,68,0.00,,,0.00,meteohub,2013-06-11 08:04:00,
2013-06-11 01:05:00,49.6,50.2,29.98,NNE,15,0.0,0.0,70,0.00,,,0.00,meteohub,2013-06-11 08:05:00,
2013-06-11 01:11:00,49.6,50.2,29.98,NNE,15,0.0,0.0,69,0.00,,,0.00,meteohub,2013-06-11 08:11:00,
2013-06-11 01:12:00,50.2,49.6,29.99,NNE,15,0.0,2.0,68,0.00,,,0.00,meteohub,2013-06-11 08:12:00,
2013-06-11 01:15:00,50.0,49.6,29.99,NNE,15,0.0,0.0,69,0.00,,,0.00,meteohub,2013-06-11 08:15:00,
2013-06-11 01:16:00,49.6,50.2,29.98,NNE,15,0.0,0.0,70,0.00,,,0.00,meteohub,2013-06-11 08:16:00,
2013-06-11 01:17:00,50.0,49.6,29.99,NNE,15,0.0,0.0,68,0.00,,,0.00,meteohub,2013-06-11 08:17:00,
2013-06-11 01:18:00,49.8,49.6,29.99,NNE,15,0.0,0.0,69,0.00,,,0.00,meteohub,2013-06-11 08:18:00,
2013-06-11 01:19:00,49.8,49.6,29.99,NNE,15,0.0,0.0,69,0.00,,,0.00,meteohub,2013-06-11 08:19:00,
2013-06-11 01:22:00,49.6,50.0,29.98,NNE,15,0.0,0.0,70,0.00,,,0.00,meteohub,2013-06-11 08:22:00,
2013-06-11 01:23:00,49.8,49.6,29.99,NNE,15,0.0,0.0,69,0.00,,,0.00,meteohub,2013-06-11 08:23:00,
2013-06-11 01:24:00,49.8,49.6,29.99,NNE,15,0.0,0.0,68,0.00,,,0.00,meteohub,2013-06-11 08:24:00,
2013-06-11 01:25:00,49.8,49.6,29.99,NNE,15,0.0,0.0,68,0.00,,,0.00,meteohub,2013-06-11 08:25:00,
2013-06-11 01:27:00,49.6,50.0,29.98,NNE,15,0.0,0.0,70,0.00,,,0.00,meteohub,2013-06-11 08:27:00,
2013-06-11 01:29:00,50.2,49.6,29.99,NNE,15,0.0,0.0,67,0.00,,,0.00,meteohub,2013-06-11 08:29:00,
2013-06-11 01:30:00,50.2,49.6,29.99,NNE,15,2.0,0.0,67,0.00,,,0.00,meteohub,2013-06-11 08:30:00,
2013-06-11 01:31:00,50.2,49.6,29.99,NNE,15,2.0,0.0,67,0.00,,,0.00,meteohub,2013-06-11 08:31:00,
2013-06-11 01:32:00,50.2,49.6,29.99,NNE,15,2.0,0.0,67,0.00,,,0.00,meteohub,2013-06-11 08:32:00,
2013-06-11 01:33:00,49.5,50.0,29.98,NNE,15,0.0,0.0,70,0.00,,,0.00,meteohub,2013-06-11 08:33:00,
2013-06-11 01:34:00,50.4,49.5,29.99,NNE,15,0.0,3.0,67,0.00,,,0.00,meteohub,2013-06-11 08:34:00,
2013-06-11 01:35:00,50.4,49.5,29.99,NNE,15,0.0,3.0,67,0.00,,,0.00,meteohub,2013-06-11 08:35:00,
2013-06-11 01:36:00,50.4,49.5,29.99,NNE,15,0.0,3.0,67,0.00,,,0.00,meteohub,2013-06-11 08:36:00,
2013-06-11 01:37:00,50.4,49.5,29.99,NNE,15,0.0,3.0,67,0.00,,,0.00,meteohub,2013-06-11 08:37:00,
2013-06-11 01:38:00,49.5,50.0,29.98,NNE,15,0.0,0.0,70,0.00,,,0.00,meteohub,2013-06-11 08:38:00,
2013-06-11 01:40:00,50.5,49.5,29.99,NNE,15,0.0,3.0,67,0.00,,,0.00,meteohub,2013-06-11 08:40:00,
2013-06-11 01:41:00,50.5,49.5,29.99,NNE,15,0.0,3.0,67,0.00,,,0.00,meteohub,2013-06-11 08:41:00,
2013-06-11 01:42:00,50.5,49.5,29.99,NNE,15,0.0,3.0,68,0.00,,,0.00,meteohub,2013-06-11 08:42:00,
2013-06-11 01:44:00,49.5,49.8,29.98,NNE,15,0.0,0.0,69,0.00,,,0.00,meteohub,2013-06-11 08:44:00,
2013-06-11 01:45:00,50.5,49.5,29.99,NNE,15,0.0,3.0,67,0.00,,,0.00,meteohub,2013-06-11 08:45:00,
2013-06-11 01:47:00,50.7,49.5,29.99,NNE,15,0.0,3.0,67,0.00,,,0.00,meteohub,2013-06-11 08:47:00,
2013-06-11 01:49:00,49.6,49.8,29.98,NNE,15,0.0,2.0,69,0.00,,,0.00,meteohub,2013-06-11 08:49:00,
2013-06-11 01:50:00,50.7,49.5,29.99,NNE,15,0.0,3.0,68,0.00,,,0.00,meteohub,2013-06-11 08:50:00,
2013-06-11 01:52:00,50.7,49.5,30.00,NNE,15,0.0,3.0,68,0.00,,,0.00,meteohub,2013-06-11 08:52:00,
2013-06-11 01:53:00,50.7,49.5,29.99,NNE,15,0.0,4.0,68,0.00,,,0.00,meteohub,2013-06-11 08:53:00,
2013-06-11 01:54:00,49.8,49.8,29.98,NNE,15,0.0,2.0,69,0.00,,,0.00,meteohub,2013-06-11 08:54:00,
2013-06-11 01:55:00,50.7,49.5,30.00,NNE,15,0.0,4.0,69,0.00,,,0.00,meteohub,2013-06-11 08:55:00,
2013-06-11 01:56:00,50.7,49.5,30.00,NNE,15,0.0,4.0,69,0.00,,,0.00,meteohub,2013-06-11 08:56:00,
2013-06-11 01:58:00,50.5,49.5,30.00,NNE,15,0.0,4.0,69,0.00,,,0.00,meteohub,2013-06-11 08:58:00,
2013-06-11 01:59:00,49.8,49.8,29.98,NNE,15,0.0,2.0,68,0.00,,,0.00,meteohub,2013-06-11 08:59:00,
2013-06-11 02:01:00,50.5,49.5,30.00,NNE,15,0.0,4.0,69,0.00,,,0.00,meteohub,2013-06-11 09:01:00,
2013-06-11 02:02:00,50.5,49.5,30.00,NNE,15,0.0,4.0,69,0.00,,,0.00,meteohub,2013-06-11 09:02:00,
2013-06-11 02:03:00,50.5,49.5,30.00,NNE,15,0.0,4.0,69,0.00,,,0.00,meteohub,2013-06-11 09:03:00,
2013-06-11 02:04:00,50.4,49.5,30.00,NNE,15,0.0,4.0,69,0.00,,,0.00,meteohub,2013-06-11 09:04:00,
2013-06-11 02:05:00,49.8,49.6,29.98,NNE,15,0.0,0.0,69,0.00,,,0.00,meteohub,2013-06-11 09:05:00,
2013-06-11 02:06:00,50.4,49.5,30.00,NNE,15,0.0,0.0,69,0.00,,,0.00,meteohub,2013-06-11 09:06:00,
2013-06-11 02:07:00,50.4,49.5,30.00,NNE,15,0.0,0.0,69,0.00,,,0.00,meteohub,2013-06-11 09:07:00,
2013-06-11 02:09:00,50.4,49.3,30.00,NNE,15,0.0,0.0,68,0.00,,,0.00,meteohub,2013-06-11 09:09:00,
2013-06-11 02:11:00,50.2,49.6,29.98,NNE,15,0.0,0.0,68,0.00,,,0.00,meteohub,2013-06-11 09:11:00,
2013-06-11 02:12:00,50.4,49.3,30.00,NNE,15,0.0,0.0,68,0.00,,,0.00,meteohub,2013-06-11 09:12:00,
2013-06-11 02:13:00,50.4,49.3,30.00,NNE,15,3.0,0.0,68,0.00,,,0.00,meteohub,2013-06-11 09:13:00,
2013-06-11 02:14:00,50.4,49.3,30.00,NNE,15,0.0,1.0,68,0.00,,,0.00,meteohub,2013-06-11 09:14:00,
2013-06-11 02:15:00,50.4,49.3,30.00,NNE,15,1.0,1.0,68,0.00,,,0.00,meteohub,2013-06-11 09:15:00,
2013-06-11 02:16:00,50.5,49.3,30.00,NNE,15,2.0,2.0,68,0.00,,,0.00,meteohub,2013-06-11 09:16:00,
2013-06-11 02:17:00,50.2,49.6,29.99,NNE,15,0.0,0.0,69,0.00,,,0.00,meteohub,2013-06-11 09:17:00,
2013-06-11 02:18:00,50.5,49.3,30.00,NNE,15,0.0,1.0,68,0.00,,,0.00,meteohub,2013-06-11 09:18:00,
2013-06-11 02:19:00,50.5,49.3,30.00,NNE,15,0.0,1.0,68,0.00,,,0.00,meteohub,2013-06-11 09:19:00,
2013-06-11 02:20:00,50.5,49.3,30.00,NNE,15,0.0,1.0,68,0.00,,,0.00,meteohub,2013-06-11 09:20:00,
2013-06-11 02:22:00,49.8,49.6,29.99,NNE,15,0.0,0.0,69,0.00,,,0.00,meteohub,2013-06-11 09:22:00,
2013-06-11 02:23:00,50.5,49.3,30.00,NNE,15,0.0,1.0,68,0.00,,,0.00,meteohub,2013-06-11 09:23:00,
2013-06-11 02:24:00,50.5,49.3,30.00,NNE,15,0.0,5.0,68,0.00,,,0.00,meteohub,2013-06-11 09:24:00,
2013-06-11 02:27:00,49.8,49.6,29.99,NNE,15,0.0,0.0,68,0.00,,,0.00,meteohub,2013-06-11 09:27:00,
2013-06-11 02:28:00,50.4,49.3,30.00,NNE,15,0.0,5.0,69,0.00,,,0.00,meteohub,2013-06-11 09:28:00,
2013-06-11 02:29:00,50.4,49.3,30.00,NNE,15,0.0,5.0,69,0.00,,,0.00,meteohub,2013-06-11 09:29:00,
2013-06-11 02:30:00,50.4,49.3,30.00,NNE,15,0.0,5.0,69,0.00,,,0.00,meteohub,2013-06-11 09:30:00,
2013-06-11 02:32:00,50.4,49.3,30.00,NNE,15,0.0,5.0,69,0.00,,,0.00,meteohub,2013-06-11 09:32:00,
2013-06-11 02:33:00,50.0,49.6,29.99,NNE,15,0.0,0.0,68,0.00,,,0.00,meteohub,2013-06-11 09:33:00,
2013-06-11 02:34:00,50.4,49.3,30.00,NNE,15,0.0,2.0,69,0.00,,,0.00,meteohub,2013-06-11 09:34:00,
2013-06-11 02:35:00,50.4,49.3,30.00,NNE,15,0.0,2.0,69,0.00,,,0.00,meteohub,2013-06-11 09:35:00,
2013-06-11 02:37:00,50.4,49.3,30.00,NNE,15,0.0,2.0,69,0.00,,,0.00,meteohub,2013-06-11 09:37:00,
2013-06-11 02:38:00,50.2,49.6,29.99,NNE,15,0.0,2.0,68,0.00,,,0.00,meteohub,2013-06-11 09:38:00,
2013-06-11 02:40:00,50.4,49.3,30.00,NNE,15,0.0,2.0,69,0.00,,,0.00,meteohub,2013-06-11 09:40:00,
2013-06-11 02:41:00,50.4,49.3,30.00,NNE,15,0.0,2.0,69,0.00,,,0.00,meteohub,2013-06-11 09:41:00,
2013-06-11 02:42:00,50.4,49.3,30.00,NNE,15,0.0,2.0,69,0.00,,,0.00,meteohub,2013-06-11 09:42:00,
2013-06-11 02:43:00,50.0,49.6,29.99,NNE,15,0.0,0.0,69,0.00,,,0.00,meteohub,2013-06-11 09:43:00,
2013-06-11 02:45:00,50.4,49.3,30.00,NNE,15,0.0,0.0,69,0.00,,,0.00,meteohub,2013-06-11 09:45:00,
2013-06-11 02:46:00,50.4,49.3,30.00,NNE,15,0.0,0.0,69,0.00,,,0.00,meteohub,2013-06-11 09:46:00,
2013-06-11 02:47:00,50.2,49.3,30.00,NNE,15,0.0,0.0,69,0.00,,,0.00,meteohub,2013-06-11 09:47:00,
2013-06-11 02:49:00,49.8,49.6,29.99,NNE,15,0.0,0.0,69,0.00,,,0.00,meteohub,2013-06-11 09:49:00,
2013-06-11 02:50:00,50.2,49.3,30.00,NNE,15,0.0,0.0,69,0.00,,,0.00,meteohub,2013-06-11 09:50:00,
2013-06-11 02:51:00,50.2,49.3,30.00,NNE,15,0.0,0.0,69,0.00,,,0.00,meteohub,2013-06-11 09:51:00,
2013-06-11 02:52:00,50.2,49.3,30.00,NNE,15,0.0,0.0,69,0.00,,,0.00,meteohub,2013-06-11 09:52:00,
2013-06-11 02:53:00,50.2,49.3,30.00,NNE,15,0.0,0.0,69,0.00,,,0.00,meteohub,2013-06-11 09:53:00,
2013-06-11 02:55:00,49.8,49.6,30.00,NNE,15,2.0,0.0,68,0.00,,,0.00,meteohub,2013-06-11 09:55:00,
2013-06-11 02:56:00,50.0,49.3,30.00,NNE,15,0.0,0.0,69,0.00,,,0.00,meteohub,2013-06-11 09:56:00,
2013-06-11 02:57:00,50.0,49.3,30.00,NNE,15,0.0,0.0,69,0.00,,,0.00,meteohub,2013-06-11 09:57:00,
2013-06-11 02:58:00,50.0,49.3,30.00,NNE,15,0.0,0.0,69,0.00,,,0.00,meteohub,2013-06-11 09:58:00,
2013-06-11 02:59:00,50.0,49.3,30.00,NNE,15,0.0,0.0,69,0.00,,,0.00,meteohub,2013-06-11 09:59:00,
2013-06-11 03:00:00,50.2,49.6,29.99,NNE,15,2.0,0.0,67,0.00,,,0.00,meteohub,2013-06-11 10:00:00,
2013-06-11 03:01:00,50.0,49.3,30.01,NNE,15,0.0,0.0,69,0.00,,,0.00,meteohub,2013-06-11 10:01:00,
2013-06-11 03:02:00,49.8,49.3,30.01,NNE,15,0.0,0.0,69,0.00,,,0.00,meteohub,2013-06-11 10:02:00,
2013-06-11 03:03:00,49.8,49.3,30.01,NNE,15,0.0,0.0,69,0.00,,,0.00,meteohub,2013-06-11 10:03:00,
2013-06-11 03:05:00,50.4,49.5,29.99,NNE,15,0.0,3.0,67,0.00,,,0.00,meteohub,2013-06-11 10:05:00,
2013-06-11 03:06:00,49.8,49.3,30.01,NNE,15,0.0,0.0,69,0.00,,,0.00,meteohub,2013-06-11 10:06:00,
2013-06-11 03:07:00,49.8,49.3,30.00,NNE,15,0.0,0.0,69,0.00,,,0.00,meteohub,2013-06-11 10:07:00,
2013-06-11 03:11:00,50.5,49.5,29.99,NNE,15,0.0,3.0,68,0.00,,,0.00,meteohub,2013-06-11 10:11:00,
2013-06-11 03:14:00,49.8,49.3,30.01,NNE,15,0.0,0.0,69,0.00,,,0.00,meteohub,2013-06-11 10:14:00,
2013-06-11 03:16:00,49.8,49.3,30.01,NNE,15,0.0,0.0,69,0.00,,,0.00,meteohub,2013-06-11 10:16:00,
2013-06-11 03:17:00,50.7,49.5,29.99,NNE,15,0.0,3.0,67,0.00,,,0.00,meteohub,2013-06-11 10:17:00,
2013-06-11 03:19:00,49.6,49.3,30.01,NNE,15,0.0,0.0,68,0.00,,,0.00,meteohub,2013-06-11 10:19:00,
2013-06-11 03:21:00,49.6,49.1,30.01,NNE,15,0.0,0.0,69,0.00,,,0.00,meteohub,2013-06-11 10:21:00,
2013-06-11 03:24:00,50.7,49.5,30.00,NNE,15,0.0,4.0,68,0.00,,,0.00,meteohub,2013-06-11 10:24:00,
2013-06-11 03:28:00,49.6,49.1,30.01,NNE,15,0.0,0.0,68,0.00,,,0.00,meteohub,2013-06-11 10:28:00,
2013-06-11 03:29:00,50.5,49.5,30.00,NNE,15,0.0,4.0,69,0.00,,,0.00,meteohub,2013-06-11 10:29:00,
2013-06-11 03:31:00,49.5,49.1,30.01,NNE,15,0.0,0.0,69,0.00,,,0.00,meteohub,2013-06-11 10:31:00,
2013-06-11 03:34:00,49.5,49.1,30.01,NNE,15,0.0,0.0,69,0.00,,,0.00,meteohub,2013-06-11 10:34:00,
2013-06-11 03:37:00,50.4,49.5,30.00,NNE,15,0.0,0.0,69,0.00,,,0.00,meteohub,2013-06-11 10:37:00,
2013-06-11 03:38:00,49.5,49.1,30.01,NNE,15,0.0,0.0,69,0.00,,,0.00,meteohub,2013-06-11 10:38:00,
2013-06-11 03:42:00,50.4,49.3,30.00,NNE,15,2.0,2.0,68,0.00,,,0.00,meteohub,2013-06-11 10:42:00,
2013-06-11 03:44:00,49.3,49.1,30.01,NNE,15,0.0,3.0,68,0.00,,,0.00,meteohub,2013-06-11 10:44:00,
2013-06-11 03:45:00,49.3,49.1,30.01,NNE,15,0.0,3.0,68,0.00,,,0.00,meteohub,2013-06-11 10:45:00,
2013-06-11 03:47:00,49.3,49.1,30.01,NNE,15,0.0,3.0,68,0.00,,,0.00,meteohub,2013-06-11 10:47:00,
2013-06-11 03:48:00,50.5,49.3,30.00,NNE,15,0.0,1.0,68,0.00,,,0.00,meteohub,2013-06-11 10:48:00,
2013-06-11 03:53:00,49.1,48.6,30.01,NNE,15,0.0,3.0,69,0.00,,,0.00,meteohub,2013-06-11 10:53:00,
2013-06-11 03:54:00,50.5,49.3,30.00,NNE,15,0.0,5.0,68,0.00,,,0.00,meteohub,2013-06-11 10:54:00,
2013-06-11 03:59:00,50.4,49.3,30.00,NNE,15,0.0,5.0,69,0.00,,,0.00,meteohub,2013-06-11 10:59:00,
2013-06-11 04:00:00,48.9,48.4,30.01,NNE,15,0.0,1.0,68,0.00,,,0.00,meteohub,2013-06-11 11:00:00,
2013-06-11 04:01:00,48.9,48.4,30.01,NNE,15,0.0,1.0,68,0.00,,,0.00,meteohub,2013-06-11 11:01:00,
2013-06-11 04:05:00,50.4,49.3,30.00,NNE,15,0.0,2.0,69,0.00,,,0.00,meteohub,2013-06-11 11:05:00,
2013-06-11 04:07:00,48.9,48.4,30.01,NNE,15,0.0,0.0,68,0.00,,,0.00,meteohub,2013-06-11 11:07:00,
2013-06-11 04:10:00,50.4,49.3,30.00,NNE,15,0.0,2.0,69,0.00,,,0.00,meteohub,2013-06-11 11:10:00,
2013-06-11 04:12:00,48.9,48.4,30.01,NNE,15,0.0,0.0,68,0.00,,,0.00,meteohub,2013-06-11 11:12:00,
2013-06-11 04:15:00,50.2,49.3,30.00,NNE,15,0.0,0.0,69,0.00,,,0.00,meteohub,2013-06-11 11:15:00,
2013-06-11 04:16:00,48.9,48.4,30.01,NNE,15,0.0,2.0,68,0.00,,,0.00,meteohub,2013-06-11 11:16:00,
2013-06-11 04:17:00,48.9,48.4,30.01,NNE,15,0.0,2.0,68,0.00,,,0.00,meteohub,2013-06-11 11:17:00,
2013-06-11 04:21:00,50.2,49.3,30.00,NNE,15,0.0,0.0,69,0.00,,,0.00,meteohub,2013-06-11 11:21:00,
2013-06-11 04:23:00,48.9,48.4,30.01,NNE,15,0.0,2.0,67,0.00,,,0.00,meteohub,2013-06-11 11:23:00,
2013-06-11 04:24:00,48.9,48.4,30.01,NNE,15,2.0,3.0,67,0.00,,,0.00,meteohub,2013-06-11 11:24:00,
2013-06-11 04:25:00,49.1,48.4,30.01,NNE,15,1.0,3.0,67,0.00,,,0.00,meteohub,2013-06-11 11:25:00,
2013-06-11 04:26:00,49.1,48.4,30.01,NNE,15,1.0,3.0,67,0.00,,,0.00,meteohub,2013-06-11 11:26:00,
2013-06-11 04:27:00,49.1,48.4,30.01,NNE,18,1.0,3.0,67,0.00,,,0.00,meteohub,2013-06-11 11:27:00,
2013-06-11 04:28:00,50.0,49.3,30.00,NNE,15,0.0,0.0,69,0.00,,,0.00,meteohub,2013-06-11 11:28:00,
2013-06-11 04:32:00,49.3,48.4,30.01,NNE,18,0.0,3.0,67,0.00,,,0.00,meteohub,2013-06-11 11:32:00,
2013-06-11 04:33:00,49.8,49.3,30.01,NNE,15,0.0,0.0,69,0.00,,,0.00,meteohub,2013-06-11 11:33:00,
2013-06-11 04:34:00,49.3,48.4,30.01,NNE,18,0.0,6.0,67,0.00,,,0.00,meteohub,2013-06-11 11:34:00,
2013-06-11 04:36:00,49.3,48.4,30.01,NNE,19,2.0,6.0,67,0.00,,,0.00,meteohub,2013-06-11 11:36:00,
2013-06-11 04:37:00,49.3,48.4,30.01,NNE,19,1.0,6.0,67,0.00,,,0.00,meteohub,2013-06-11 11:37:00,
2013-06-11 04:38:00,49.8,49.3,30.01,NNE,15,0.0,0.0,69,0.00,,,0.00,meteohub,2013-06-11 11:38:00,
2013-06-11 04:39:00,49.3,48.2,30.01,NNE,19,2.0,6.0,67,0.00,,,0.00,meteohub,2013-06-11 11:39:00,
2013-06-11 04:40:00,49.3,48.2,30.01,NNE,20,0.0,6.0,67,0.00,,,0.00,meteohub,2013-06-11 11:40:00,
2013-06-11 04:41:00,49.5,48.2,30.02,NNE,20,0.0,6.0,67,0.00,,,0.00,meteohub,2013-06-11 11:41:00,
2013-06-11 04:42:00,49.5,48.2,30.01,NNE,20,3.0,6.0,67,0.00,,,0.00,meteohub,2013-06-11 11:42:00,
2013-06-11 04:43:00,49.5,48.2,30.02,NNE,20,1.0,6.0,67,0.00,,,0.00,meteohub,2013-06-11 11:43:00,
2013-06-11 04:44:00,49.8,49.3,30.01,NNE,15,0.0,0.0,69,0.00,,,0.00,meteohub,2013-06-11 11:44:00,
2013-06-11 04:45:00,49.5,48.2,30.02,NNE,20,0.0,5.0,67,0.00,,,0.00,meteohub,2013-06-11 11:45:00,
2013-06-11 04:46:00,49.6,48.2,30.02,NNE,21,4.0,5.0,67,0.00,,,0.00,meteohub,2013-06-11 11:46:00,
2013-06-11 04:48:00,49.6,48.2,30.02,NNE,21,0.0,5.0,67,0.00,,,0.00,meteohub,2013-06-11 11:48:00,
2013-06-11 04:49:00,49.6,49.1,30.01,NNE,15,0.0,0.0,69,0.00,,,0.00,meteohub,2013-06-11 11:49:00,
2013-06-11 04:50:00,49.6,48.2,30.02,NNE,21,0.0,5.0,67,0.00,,,0.00,meteohub,2013-06-11 11:50:00,
2013-06-11 04:51:00,49.6,48.2,30.02,NNE,21,2.0,5.0,67,0.00,,,0.00,meteohub,2013-06-11 11:51:00,
2013-06-11 04:52:00,49.6,48.2,30.02,NNE,21,3.0,5.0,67,0.00,,,0.00,meteohub,2013-06-11 11:52:00,
2013-06-11 04:53:00,49.6,48.2,30.02,NNE,21,3.0,5.0,67,0.00,,,0.00,meteohub,2013-06-11 11:53:00,
2013-06-11 04:54:00,49.6,49.1,30.01,NNE,15,0.0,0.0,68,0.00,,,0.00,meteohub,2013-06-11 11:54:00,
2013-06-11 04:55:00,49.8,48.2,30.02,NNE,21,3.0,6.0,67,0.00,,,0.00,meteohub,2013-06-11 11:55:00,
2013-06-11 04:56:00,49.8,48.2,30.02,NNE,21,1.0,6.0,67,0.00,,,0.00,meteohub,2013-06-11 11:56:00,
2013-06-11 04:57:00,49.8,48.2,30.02,NNE,21,4.0,6.0,67,0.00,,,0.00,meteohub,2013-06-11 11:57:00,
2013-06-11 04:59:00,49.6,49.1,30.01,NNE,15,0.0,0.0,69,0.00,,,0.00,meteohub,2013-06-11 11:59:00,
2013-06-11 05:00:00,49.8,48.2,30.03,NNE,21,0.0,6.0,67,0.00,,,0.00,meteohub,2013-06-11 12:00:00,
2013-06-11 05:02:00,49.8,48.2,30.03,NNE,21,0.0,6.0,67,0.00,,,0.00,meteohub,2013-06-11 12:02:00,
2013-06-11 05:04:00,49.5,49.1,30.01,NNE,15,0.0,0.0,69,0.00,,,0.00,meteohub,2013-06-11 12:04:00,
2013-06-11 05:06:00,49.8,48.2,30.02,NNE,21,1.0,5.0,67,0.00,,,0.00,meteohub,2013-06-11 12:06:00,
2013-06-11 05:08:00,49.8,48.2,30.02,NNE,21,0.0,5.0,67,0.00,,,0.00,meteohub,2013-06-11 12:08:00,
2013-06-11 05:09:00,49.8,48.2,30.02,NNE,21,0.0,5.0,67,0.00,,,0.00,meteohub,2013-06-11 12:09:00,
2013-06-11 05:10:00,49.3,49.1,30.01,NNE,15,0.0,0.0,68,0.00,,,0.00,meteohub,2013-06-11 12:10:00,
2013-06-11 05:12:00,50.0,48.2,30.02,NNE,21,0.0,5.0,67,0.00,,,0.00,meteohub,2013-06-11 12:12:00,
2013-06-11 05:15:00,49.3,49.1,30.01,NNE,15,0.0,3.0,68,0.00,,,0.00,meteohub,2013-06-11 12:15:00,
2013-06-11 05:17:00,50.2,48.2,30.03,NNE,21,1.0,4.0,67,0.00,,,0.00,meteohub,2013-06-11 12:17:00,
2013-06-11 05:19:00,50.2,48.2,30.03,NNE,21,1.0,4.0,66,0.00,,,0.00,meteohub,2013-06-11 12:19:00,
2013-06-11 05:20:00,49.1,49.1,30.01,NNE,15,0.0,3.0,69,0.00,,,0.00,meteohub,2013-06-11 12:20:00,
2013-06-11 05:24:00,50.4,48.2,30.03,NNE,22,0.0,5.0,66,0.00,,,0.00,meteohub,2013-06-11 12:24:00,
2013-06-11 05:25:00,49.1,48.4,30.01,NNE,15,0.0,1.0,68,0.00,,,0.00,meteohub,2013-06-11 12:25:00,
2013-06-11 05:26:00,50.5,48.0,30.03,NNE,22,2.0,5.0,66,0.00,,,0.00,meteohub,2013-06-11 12:26:00,
2013-06-11 05:28:00,50.5,48.0,30.03,NNE,22,2.0,5.0,66,0.00,,,0.00,meteohub,2013-06-11 12:28:00,
2013-06-11 05:30:00,48.9,48.9,30.01,NNE,15,0.0,1.0,68,0.00,,,0.00,meteohub,2013-06-11 12:30:00,
2013-06-11 05:33:00,50.9,48.0,30.03,NNE,22,0.0,5.0,66,0.00,,,0.00,meteohub,2013-06-11 12:33:00,
2013-06-11 05:34:00,50.9,48.0,30.03,NNE,22,0.0,5.0,66,0.00,,,0.00,meteohub,2013-06-11 12:34:00,
2013-06-11 05:35:00,48.9,48.4,30.01,NNE,15,0.0,0.0,68,0.00,,,0.00,meteohub,2013-06-11 12:35:00,
2013-06-11 05:36:00,51.1,48.0,30.03,NNE,22,1.0,5.0,66,0.00,,,0.00,meteohub,2013-06-11 12:36:00,
2013-06-11 05:37:00,51.1,48.0,30.03,NNE,22,0.0,5.0,66,0.00,,,0.00,meteohub,2013-06-11 12:37:00,
2013-06-11 05:40:00,51.3,48.0,30.03,NNE,22,1.0,5.0,66,0.00,,,0.00,meteohub,2013-06-11 12:40:00,
2013-06-11 05:41:00,48.9,48.4,30.01,NNE,15,0.0,0.0,68,0.00,,,0.00,meteohub,2013-06-11 12:41:00,
2013-06-11 05:42:00,51.3,48.0,30.03,NNE,23,1.0,5.0,66,0.00,,,0.00,meteohub,2013-06-11 12:42:00,
2013-06-11 05:43:00,51.3,48.0,30.03,NNE,23,1.0,5.0,66,0.00,,,0.00,meteohub,2013-06-11 12:43:00,
2013-06-11 05:46:00,51.3,48.0,30.03,NNE,23,1.0,5.0,66,0.00,,,0.00,meteohub,2013-06-11 12:46:00,
2013-06-11 05:47:00,48.9,48.4,30.01,NNE,15,0.0,2.0,68,0.00,,,0.00,meteohub,2013-06-11 12:47:00,
2013-06-11 05:50:00,51.3,48.0,30.03,NNE,23,2.0,5.0,66,0.00,,,0.00,meteohub,2013-06-11 12:50:00,
2013-06-11 05:51:00,51.3,48.0,30.03,NNE,23,1.0,5.0,66,0.00,,,0.00,meteohub,2013-06-11 12:51:00,
2013-06-11 05:52:00,51.3,48.0,30.03,NNE,23,0.0,5.0,66,0.00,,,0.00,meteohub,2013-06-11 12:52:00,
2013-06-11 05:53:00,48.9,48.4,30.01,NNE,15,1.0,3.0,67,0.00,,,0.00,meteohub,2013-06-11 12:53:00,
2013-06-11 05:54:00,51.4,48.0,30.03,NNE,23,1.0,5.0,66,0.00,,,0.00,meteohub,2013-06-11 12:54:00,
2013-06-11 05:55:00,51.4,48.0,30.03,NNE,23,0.0,5.0,66,0.00,,,0.00,meteohub,2013-06-11 12:55:00,
2013-06-11 05:56:00,51.4,48.0,30.03,NNE,23,0.0,5.0,66,0.00,,,0.00,meteohub,2013-06-11 12:56:00,
2013-06-11 05:57:00,51.4,48.0,30.03,NNE,23,2.0,5.0,66,0.00,,,0.00,meteohub,2013-06-11 12:57:00,
2013-06-11 05:58:00,49.1,48.4,30.01,NNE,18,0.0,3.0,67,0.00,,,0.00,meteohub,2013-06-11 12:58:00,
2013-06-11 05:59:00,51.4,48.0,30.03,NNE,24,0.0,5.0,66,0.00,,,0.00,meteohub,2013-06-11 12:59:00,
2013-06-11 06:01:00,51.4,48.0,30.03,NNE,24,0.0,5.0,66,0.00,,,0.00,meteohub,2013-06-11 13:01:00,
2013-06-11 06:02:00,51.6,48.0,30.03,NNE,24,0.0,5.0,66,0.00,,,0.00,meteohub,2013-06-11 13:02:00,
2013-06-11 06:03:00,49.3,48.4,30.01,NNE,18,1.0,6.0,67,0.00,,,0.00,meteohub,2013-06-11 13:03:00,
2013-06-11 06:05:00,51.6,48.0,30.03,NNE,24,3.0,5.0,66,0.00,,,0.00,meteohub,2013-06-11 13:05:00,
2013-06-11 06:06:00,51.6,48.0,30.04,NNE,23,0.0,6.0,66,0.00,,,0.00,meteohub,2013-06-11 13:06:00,
2013-06-11 06:07:00,51.4,48.0,30.04,West,263,3.0,6.0,66,0.00,,,0.00,meteohub,2013-06-11 13:07:00,
2013-06-11 06:08:00,51.4,48.0,30.04,West,261,5.0,6.0,67,0.00,,,0.00,meteohub,2013-06-11 13:08:00,
2013-06-11 06:09:00,51.1,48.0,30.04,West,261,3.0,6.0,68,0.00,,,0.00,meteohub,2013-06-11 13:09:00,
2013-06-11 06:10:00,49.5,48.2,30.02,NNE,20,1.0,6.0,67,0.00,,,0.00,meteohub,2013-06-11 13:10:00,
2013-06-11 06:11:00,50.7,48.0,30.04,West,261,4.0,6.0,68,0.00,,,0.01,meteohub,2013-06-11 13:11:00,
2013-06-11 06:13:00,50.5,48.0,30.03,West,261,4.0,10.0,67,0.01,,,0.01,meteohub,2013-06-11 13:13:00,
2013-06-11 06:14:00,50.7,48.0,30.03,West,261,3.0,10.0,67,0.01,,,0.01,meteohub,2013-06-11 13:14:00,
2013-06-11 06:15:00,49.6,48.2,30.02,NNE,21,1.0,5.0,67,0.00,,,0.00,meteohub,2013-06-11 13:15:00,
2013-06-11 06:17:00,50.7,48.0,30.04,West,261,0.0,10.0,66,0.01,,,0.01,meteohub,2013-06-11 13:17:00,
2013-06-11 06:18:00,50.9,48.0,30.04,West,261,0.0,10.0,66,0.01,,,0.01,meteohub,2013-06-11 13:18:00,
2013-06-11 06:20:00,51.1,48.0,30.04,West,261,0.0,10.0,66,0.01,,,0.01,meteohub,2013-06-11 13:20:00,
2013-06-11 06:21:00,51.1,48.0,30.04,West,261,0.0,10.0,66,0.01,,,0.02,meteohub,2013-06-11 13:21:00,
2013-06-11 06:22:00,49.6,48.2,30.02,NNE,21,5.0,5.0,67,0.00,,,0.00,meteohub,2013-06-11 13:22:00,
2013-06-11 06:23:00,51.1,48.0,30.04,West,261,1.0,10.0,66,0.02,,,0.02,meteohub,2013-06-11 13:23:00,
2013-06-11 06:24:00,51.1,48.0,30.04,West,261,1.0,10.0,67,0.02,,,0.02,meteohub,2013-06-11 13:24:00,
2013-06-11 06:26:00,50.7,48.0,30.04,West,261,1.0,6.0,67,0.02,,,0.02,meteohub,2013-06-11 13:26:00,
2013-06-11 06:27:00,49.8,48.2,30.03,NNE,21,1.0,6.0,67,0.00,,,0.00,meteohub,2013-06-11 13:27:00,
2013-06-11 06:29:00,50.7,48.0,30.04,West,261,0.0,6.0,67,0.02,,,0.02,meteohub,2013-06-11 13:29:00,
2013-06-11 06:30:00,50.7,48.0,30.04,West,261,2.0,6.0,66,0.02,,,0.02,meteohub,2013-06-11 13:30:00,
2013-06-11 06:31:00,50.7,48.0,30.04,West,261,3.0,6.0,66,0.02,,,0.02,meteohub,2013-06-11 13:31:00,
2013-06-11 06:32:00,50.7,48.0,30.04,West,261,3.0,6.0,66,0.02,,,0.02,meteohub,2013-06-11 13:32:00,
2013-06-11 06:33:00,49.8,48.2,30.02,NNE,21,0.0,6.0,67,0.00,,,0.00,meteohub,2013-06-11 13:33:00,
2013-06-11 06:34:00,50.7,48.0,30.04,West,261,5.0,5.0,67,0.02,,,0.02,meteohub,2013-06-11 13:34:00,
2013-06-11 06:36:00,50.5,48.0,30.04,West,261,2.0,3.0,67,0.02,,,0.02,meteohub,2013-06-11 13:36:00,
2013-06-11 06:38:00,49.8,48.2,30.02,NNE,21,0.0,5.0,67,0.00,,,0.00,meteohub,2013-06-11 13:38:00,
2013-06-11 06:39:00,50.7,48.0,30.04,West,261,0.0,3.0,65,0.02,,,0.02,meteohub,2013-06-11 13:39:00,
2013-06-11 06:41:00,51.1,48.0,30.04,West,261,0.0,3.0,65,0.02,,,0.02,meteohub,2013-06-11 13:41:00,
2013-06-11 06:43:00,50.2,48.2,30.03,NNE,21,0.0,4.0,67,0.00,,,0.00,meteohub,2013-06-11 13:43:00,
2013-06-11 06:44:00,51.1,48.0,30.04,West,261,4.0,5.0,65,0.02,,,0.02,meteohub,2013-06-11 13:44:00,
2013-06-11 06:45:00,51.1,48.0,30.04,West,261,4.0,5.0,65,0.02,,,0.02,meteohub,2013-06-11 13:45:00,
2013-06-11 06:46:00,51.1,48.0,30.04,West,260,4.0,5.0,66,0.02,,,0.02,meteohub,2013-06-11 13:46:00,
2013-06-11 06:47:00,51.1,48.0,30.04,West,260,5.0,5.0,66,0.02,,,0.02,meteohub,2013-06-11 13:47:00,
2013-06-11 06:48:00,50.2,48.2,30.02,NNE,21,2.0,4.0,66,0.00,,,0.00,meteohub,2013-06-11 13:48:00,
2013-06-11 06:49:00,51.3,48.0,30.04,West,260,3.0,5.0,65,0.02,,,0.02,meteohub,2013-06-11 13:49:00,
2013-06-11 06:50:00,51.3,48.0,30.04,West,260,0.0,5.0,65,0.02,,,0.02,meteohub,2013-06-11 13:50:00,
2013-06-11 06:51:00,51.3,48.0,30.04,West,260,0.0,5.0,66,0.02,,,0.02,meteohub,2013-06-11 13:51:00,
2013-06-11 06:53:00,51.3,48.0,30.04,West,261,3.0,5.0,66,0.02,,,0.02,meteohub,2013-06-11 13:53:00,
2013-06-11 06:54:00,50.5,48.0,30.03,NNE,22,0.0,5.0,66,0.00,,,0.00,meteohub,2013-06-11 13:54:00,
2013-06-11 06:57:00,51.1,48.0,30.04,West,260,4.0,6.0,66,0.02,,,0.02,meteohub,2013-06-11 13:57:00,
2013-06-11 06:58:00,50.9,48.0,30.05,West,260,6.0,6.0,66,0.02,,,0.02,meteohub,2013-06-11 13:58:00,
2013-06-11 06:59:00,50.7,48.0,30.03,NNE,22,0.0,5.0,66,0.00,,,0.00,meteohub,2013-06-11 13:59:00,
2013-06-11 07:00:00,50.7,48.0,30.05,West,259,4.0,6.0,66,0.02,,,0.02,meteohub,2013-06-11 14:00:00,
2013-06-11 07:02:00,50.7,48.0,30.05,WSW,258,8.0,8.0,66,0.02,,,0.02,meteohub,2013-06-11 14:02:00,
2013-06-11 07:05:00,51.1,48.0,30.03,NNE,22,3.0,5.0,66,0.00,,,0.00,meteohub,2013-06-11 14:05:00,
2013-06-11 07:09:00,50.5,48.0,30.05,WSW,242,2.0,10.0,66,0.02,,,0.02,meteohub,2013-06-11 14:09:00,
2013-06-11 07:10:00,51.3,48.0,30.03,NNE,22,1.0,5.0,66,0.00,,,0.00,meteohub,2013-06-11 14:10:00,
2013-06-11 07:11:00,50.5,48.0,30.05,WSW,242,3.0,10.0,66,0.02,,,0.03,meteohub,2013-06-11 14:11:00,
2013-06-11 07:15:00,51.3,48.0,30.03,NNE,23,2.0,5.0,66,0.00,,,0.00,meteohub,2013-06-11 14:15:00,
2013-06-11 07:17:00,50.4,48.0,30.05,WSW,242,4.0,12.0,66,0.03,,,0.03,meteohub,2013-06-11 14:17:00,
2013-06-11 07:19:00,50.4,48.0,30.05,WSW,242,5.0,12.0,66,0.03,,,0.03,meteohub,2013-06-11 14:19:00,
2013-06-11 07:21:00,50.4,48.0,30.05,WSW,241,3.0,12.0,66,0.03,,,0.04,meteohub,2013-06-11 14:21:00,
2013-06-11 07:22:00,51.3,48.0,30.03,NNE,23,1.0,5.0,66,0.00,,,0.00,meteohub,2013-06-11 14:22:00,
2013-06-11 07:24:00,50.4,48.0,30.05,WSW,241,1.0,12.0,66,0.02,,,0.04,meteohub,2013-06-11 14:24:00,
2013-06-11 07:29:00,51.4,48.0,30.03,NNE,24,1.0,5.0,66,0.00,,,0.00,meteohub,2013-06-11 14:29:00,
2013-06-11 07:31:00,50.5,48.0,30.05,WSW,241,3.0,8.0,65,0.02,,,0.05,meteohub,2013-06-11 14:31:00,
2013-06-11 07:35:00,51.6,48.0,30.04,North,5,3.0,6.0,66,0.00,,,0.00,meteohub,2013-06-11 14:35:00,
2013-06-11 07:36:00,50.7,48.0,30.06,WSW,241,2.0,6.0,65,0.03,,,0.05,meteohub,2013-06-11 14:36:00,
2013-06-11 07:37:00,50.7,48.0,30.05,WSW,241,2.0,6.0,65,0.03,,,0.05,meteohub,2013-06-11 14:37:00,
2013-06-11 07:39:00,50.9,48.0,30.05,WSW,241,0.0,6.0,65,0.03,,,0.05,meteohub,2013-06-11 14:39:00,
2013-06-11 07:40:00,50.7,48.0,30.03,West,261,2.0,6.0,68,0.00,,,0.01,meteohub,2013-06-11 14:40:00,
2013-06-11 07:41:00,51.1,48.0,30.05,WSW,241,2.0,6.0,65,0.03,,,0.05,meteohub,2013-06-11 14:41:00,
2013-06-11 07:43:00,51.1,48.0,30.06,WSW,241,2.0,6.0,65,0.03,,,0.05,meteohub,2013-06-11 14:43:00,
2013-06-11 07:45:00,51.4,48.0,30.06,WSW,241,1.0,5.0,64,0.03,,,0.05,meteohub,2013-06-11 14:45:00,
2013-06-11 07:47:00,51.1,48.0,30.04,West,261,0.0,10.0,66,0.01,,,0.01,meteohub,2013-06-11 14:47:00,
2013-06-11 07:48:00,51.4,48.0,30.06,WSW,241,2.0,5.0,64,0.03,,,0.05,meteohub,2013-06-11 14:48:00,
2013-06-11 07:52:00,51.6,48.0,30.06,WSW,241,0.0,5.0,64,0.03,,,0.05,meteohub,2013-06-11 14:52:00,
2013-06-11 07:53:00,50.9,48.0,30.04,West,261,0.0,6.0,67,0.02,,,0.02,meteohub,2013-06-11 14:53:00,
2013-06-11 07:56:00,51.8,48.0,30.06,WSW,241,0.0,4.0,64,0.03,,,0.05,meteohub,2013-06-11 14:56:00,
2013-06-11 07:57:00,52.0,48.0,30.05,WSW,241,0.0,4.0,64,0.03,,,0.05,meteohub,2013-06-11 14:57:00,
2013-06-11 07:58:00,52.2,48.0,30.05,WSW,241,3.0,4.0,64,0.03,,,0.05,meteohub,2013-06-11 14:58:00,
2013-06-11 08:00:00,50.9,48.0,30.04,West,261,2.0,6.0,66,0.02,,,0.02,meteohub,2013-06-11 15:00:00,
2013-06-11 08:01:00,52.3,48.2,30.05,WSW,241,1.0,4.0,64,0.03,,,0.05,meteohub,2013-06-11 15:01:00,
2013-06-11 08:02:00,52.3,48.2,30.06,WSW,241,0.0,4.0,64,0.03,,,0.05,meteohub,2013-06-11 15:02:00,
2013-06-11 08:04:00,52.5,48.2,30.06,WSW,241,2.0,4.0,64,0.03,,,0.05,meteohub,2013-06-11 15:04:00,
2013-06-11 08:05:00,50.5,48.0,30.04,West,261,1.0,3.0,66,0.02,,,0.02,meteohub,2013-06-11 15:05:00,
2013-06-11 08:07:00,53.1,48.2,30.06,WSW,241,0.0,4.0,63,0.03,,,0.05,meteohub,2013-06-11 15:07:00,
2013-06-11 08:08:00,53.1,48.2,30.06,WSW,241,0.0,4.0,63,0.03,,,0.05,meteohub,2013-06-11 15:08:00,
2013-06-11 08:09:00,53.2,48.2,30.05,WSW,241,2.0,4.0,63,0.03,,,0.05,meteohub,2013-06-11 15:09:00,
2013-06-11 08:10:00,51.1,48.0,30.04,West,261,4.0,4.0,65,0.02,,,0.02,meteohub,2013-06-11 15:10:00,
2013-06-11 08:11:00,53.4,48.2,30.06,WSW,241,3.0,4.0,63,0.03,,,0.05,meteohub,2013-06-11 15:11:00,
2013-06-11 08:12:00,53.4,48.2,30.06,WSW,241,1.0,4.0,63,0.03,,,0.05,meteohub,2013-06-11 15:12:00,
2013-06-11 08:17:00,53.8,48.2,30.06,WSW,240,0.0,4.0,63,0.01,,,0.05,meteohub,2013-06-11 15:17:00,
2013-06-11 08:20:00,51.3,48.0,30.04,West,260,0.0,5.0,66,0.02,,,0.02,meteohub,2013-06-11 15:20:00,
2013-06-11 08:22:00,54.1,48.2,30.06,WSW,240,4.0,4.0,63,0.01,,,0.05,meteohub,2013-06-11 15:22:00,
2013-06-11 08:23:00,54.3,48.2,30.06,WSW,238,3.0,4.0,63,0.01,,,0.05,meteohub,2013-06-11 15:23:00,
2013-06-11 08:24:00,54.3,48.2,30.06,WSW,238,0.0,6.0,63,0.01,,,0.05,meteohub,2013-06-11 15:24:00,
2013-06-11 08:25:00,51.1,48.0,30.04,West,260,4.0,6.0,66,0.02,,,0.02,meteohub,2013-06-11 15:25:00,
2013-06-11 08:26:00,54.3,48.2,30.06,WSW,238,3.0,6.0,63,0.01,,,0.05,meteohub,2013-06-11 15:26:00,
2013-06-11 08:27:00,54.3,48.2,30.06,WSW,238,0.0,6.0,63,0.01,,,0.05,meteohub,2013-06-11 15:27:00,
2013-06-11 08:28:00,54.5,48.2,30.06,WSW,238,3.0,6.0,63,0.01,,,0.05,meteohub,2013-06-11 15:28:00,
2013-06-11 08:31:00,50.7,48.0,30.05,WSW,257,5.0,6.0,66,0.02,,,0.02,meteohub,2013-06-11 15:31:00,
2013-06-11 08:32:00,54.7,48.4,30.06,WSW,238,0.0,6.0,63,0.01,,,0.05,meteohub,2013-06-11 15:32:00,
2013-06-11 08:35:00,54.7,48.4,30.06,WSW,238,0.0,6.0,64,0.00,,,0.05,meteohub,2013-06-11 15:35:00,
2013-06-11 08:36:00,50.5,48.0,30.05,WSW,242,4.0,10.0,66,0.02,,,0.02,meteohub,2013-06-11 15:36:00,
2013-06-11 08:37:00,54.7,48.4,30.06,WSW,238,1.0,6.0,64,0.00,,,0.05,meteohub,2013-06-11 15:37:00,
2013-06-11 08:38:00,54.7,48.4,30.06,WSW,238,0.0,6.0,64,0.00,,,0.05,meteohub,2013-06-11 15:38:00,
2013-06-11 08:42:00,50.5,48.0,30.05,WSW,242,3.0,10.0,66,0.03,,,0.03,meteohub,2013-06-11 15:42:00,
2013-06-11 08:44:00,54.0,48.4,30.06,WSW,238,4.0,6.0,65,0.00,,,0.05,meteohub,2013-06-11 15:44:00,
2013-06-11 08:45:00,53.8,48.4,30.06,WSW,238,3.0,5.0,65,0.00,,,0.05,meteohub,2013-06-11 15:45:00,
2013-06-11 08:47:00,50.4,48.0,30.05,WSW,242,3.0,12.0,66,0.03,,,0.03,meteohub,2013-06-11 15:47:00,
2013-06-11 08:48:00,53.2,48.4,30.06,WSW,238,2.0,5.0,66,0.00,,,0.05,meteohub,2013-06-11 15:48:00,
2013-06-11 08:49:00,53.2,48.4,30.06,WSW,238,2.0,5.0,65,0.00,,,0.05,meteohub,2013-06-11 15:49:00,
2013-06-11 08:52:00,50.4,48.0,30.05,WSW,241,2.0,12.0,66,0.02,,,0.04,meteohub,2013-06-11 15:52:00,
2013-06-11 08:53:00,53.1,48.4,30.06,WSW,238,4.0,5.0,65,0.00,,,0.05,meteohub,2013-06-11 15:53:00,
2013-06-11 08:54:00,52.5,48.4,30.06,WSW,238,4.0,5.0,66,0.00,,,0.05,meteohub,2013-06-11 15:54:00,
2013-06-11 08:55:00,52.3,48.4,30.06,WSW,237,4.0,5.0,66,0.00,,,0.05,meteohub,2013-06-11 15:55:00,
2013-06-11 08:57:00,50.4,48.0,30.05,WSW,241,3.0,8.0,65,0.02,,,0.04,meteohub,2013-06-11 15:57:00,
2013-06-11 09:00:00,52.5,48.4,30.06,SW,234,3.0,5.0,64,0.00,,,0.05,meteohub,2013-06-11 16:00:00,
2013-06-11 09:02:00,50.5,48.0,30.05,WSW,241,2.0,8.0,65,0.03,,,0.05,meteohub,2013-06-11 16:02:00,
2013-06-11 09:05:00,53.1,48.4,30.06,SW,231,4.0,8.0,64,0.00,,,0.05,meteohub,2013-06-11 16:05:00,
2013-06-11 09:06:00,53.1,48.4,30.06,SW,230,3.0,8.0,64,0.00,,,0.05,meteohub,2013-06-11 16:06:00,
2013-06-11 09:07:00,53.1,48.4,30.06,SW,226,4.0,8.0,65,0.00,,,0.05,meteohub,2013-06-11 16:07:00,
2013-06-11 09:08:00,50.9,48.0,30.05,WSW,241,0.0,6.0,65,0.03,,,0.05,meteohub,2013-06-11 16:08:00,
2013-06-11 09:13:00,51.3,48.0,30.06,WSW,241,1.0,5.0,64,0.03,,,0.05,meteohub,2013-06-11 16:13:00,
2013-06-11 09:16:00,53.2,48.6,30.07,SW,221,4.0,10.0,64,0.00,,,0.05,meteohub,2013-06-11 16:16:00,
2013-06-11 09:17:00,53.4,48.6,30.07,SW,219,5.0,10.0,64,0.00,,,0.05,meteohub,2013-06-11 16:17:00,
2013-06-11 09:18:00,51.4,48.0,30.06,WSW,241,0.0,5.0,64,0.03,,,0.05,meteohub,2013-06-11 16:18:00,
2013-06-11 09:23:00,51.6,48.0,30.06,WSW,241,0.0,4.0,64,0.03,,,0.05,meteohub,2013-06-11 16:23:00,
2013-06-11 09:25:00,52.5,48.6,30.07,SW,217,5.0,10.0,66,0.00,,,0.05,meteohub,2013-06-11 16:25:00,
2013-06-11 09:27:00,52.5,48.6,30.07,SW,215,5.0,8.0,66,0.00,,,0.05,meteohub,2013-06-11 16:27:00,
2013-06-11 09:28:00,52.5,48.6,30.07,SW,215,3.0,8.0,66,0.00,,,0.05,meteohub,2013-06-11 16:28:00,
2013-06-11 09:29:00,52.7,48.6,30.07,SW,215,5.0,8.0,66,0.00,,,0.05,meteohub,2013-06-11 16:29:00,
2013-06-11 09:30:00,52.3,48.2,30.06,WSW,241,0.0,4.0,64,0.03,,,0.05,meteohub,2013-06-11 16:30:00,
2013-06-11 09:35:00,53.4,48.6,30.07,SW,225,4.0,8.0,66,0.00,,,0.05,meteohub,2013-06-11 16:35:00,
2013-06-11 09:36:00,53.6,48.6,30.07,SW,225,5.0,11.0,65,0.00,,,0.05,meteohub,2013-06-11 16:36:00,
2013-06-11 09:37:00,53.8,48.6,30.07,SW,217,8.0,11.0,65,0.00,,,0.05,meteohub,2013-06-11 16:37:00,
2013-06-11 09:38:00,53.2,48.2,30.05,WSW,241,4.0,4.0,63,0.03,,,0.05,meteohub,2013-06-11 16:38:00,
2013-06-11 09:41:00,54.1,48.6,30.08,SW,221,4.0,11.0,66,0.00,,,0.05,meteohub,2013-06-11 16:41:00,
2013-06-11 09:42:00,54.1,48.6,30.07,SW,220,6.0,11.0,66,0.00,,,0.05,meteohub,2013-06-11 16:42:00,
2013-06-11 09:43:00,53.4,48.2,30.06,WSW,240,5.0,5.0,63,0.01,,,0.05,meteohub,2013-06-11 16:43:00,
2013-06-11 09:48:00,53.8,48.2,30.06,WSW,240,0.0,4.0,63,0.01,,,0.05,meteohub,2013-06-11 16:48:00,
2013-06-11 09:53:00,54.3,48.2,30.06,WSW,238,1.0,6.0,63,0.01,,,0.05,meteohub,2013-06-11 16:53:00,
2013-06-11 09:58:00,54.5,48.2,30.06,WSW,238,3.0,6.0,63,0.01,,,0.05,meteohub,2013-06-11 16:58:00,
2013-06-11 10:04:00,54.7,48.4,30.06,WSW,238,1.0,6.0,64,0.00,,,0.05,meteohub,2013-06-11 17:04:00,
2013-06-11 10:09:00,54.3,48.4,30.06,WSW,238,2.0,6.0,65,0.00,,,0.05,meteohub,2013-06-11 17:09:00,
2013-06-11 10:14:00,53.8,48.4,30.06,WSW,238,4.0,5.0,65,0.00,,,0.05,meteohub,2013-06-11 17:14:00,
2013-06-11 10:18:00,55.9,48.9,30.09,SW,229,7.0,12.0,72,0.00,,,0.05,meteohub,2013-06-11 17:18:00,
2013-06-11 10:20:00,53.1,48.4,30.06,WSW,238,1.0,5.0,65,0.00,,,0.05,meteohub,2013-06-11 17:20:00,
2013-06-11 10:21:00,55.9,48.9,30.09,SW,225,10.0,12.0,73,0.00,,,0.05,meteohub,2013-06-11 17:21:00,
2013-06-11 10:22:00,55.9,48.9,30.09,SW,221,5.0,12.0,73,0.00,,,0.05,meteohub,2013-06-11 17:22:00,
2013-06-11 10:24:00,55.8,48.9,30.09,SW,225,6.0,12.0,73,0.00,,,0.05,meteohub,2013-06-11 17:24:00,
2013-06-11 10:25:00,52.3,48.4,30.06,WSW,237,4.0,5.0,66,0.00,,,0.05,meteohub,2013-06-11 17:25:00,
2013-06-11 10:26:00,55.8,48.9,30.08,SW,221,5.0,12.0,73,0.00,,,0.05,meteohub,2013-06-11 17:26:00,
2013-06-11 10:27:00,55.8,48.9,30.09,SW,221,6.0,12.0,73,0.00,,,0.05,meteohub,2013-06-11 17:27:00,
2013-06-11 10:28:00,55.8,48.9,30.09,SW,227,7.0,12.0,73,0.00,,,0.05,meteohub,2013-06-11 17:28:00,
2013-06-11 10:29:00,55.8,48.9,30.09,SW,224,5.0,12.0,74,0.00,,,0.05,meteohub,2013-06-11 17:29:00,
2013-06-11 10:30:00,52.7,48.4,30.06,SW,232,5.0,5.0,64,0.00,,,0.05,meteohub,2013-06-11 17:30:00,
2013-06-11 10:32:00,55.6,48.9,30.09,SW,220,6.0,12.0,74,0.00,,,0.05,meteohub,2013-06-11 17:32:00,
2013-06-11 10:34:00,55.6,48.9,30.09,SW,223,7.0,11.0,74,0.00,,,0.05,meteohub,2013-06-11 17:34:00,
2013-06-11 10:35:00,53.1,48.4,30.06,SW,226,10.0,10.0,64,0.00,,,0.05,meteohub,2013-06-11 17:35:00,
2013-06-11 10:37:00,55.6,48.9,30.09,SW,223,5.0,11.0,74,0.00,,,0.05,meteohub,2013-06-11 17:37:00,
2013-06-11 10:38:00,55.6,48.9,30.09,SW,215,6.0,11.0,74,0.00,,,0.05,meteohub,2013-06-11 17:38:00,
2013-06-11 10:39:00,55.6,48.9,30.09,SW,220,8.0,11.0,74,0.00,,,0.05,meteohub,2013-06-11 17:39:00,
2013-06-11 10:40:00,52.7,48.6,30.07,SW,225,5.0,8.0,65,0.00,,,0.05,meteohub,2013-06-11 17:40:00,
2013-06-11 10:41:00,55.6,49.1,30.09,SW,220,6.0,11.0,74,0.00,,,0.05,meteohub,2013-06-11 17:41:00,
2013-06-11 10:42:00,55.6,49.1,30.09,SW,220,5.0,11.0,74,0.00,,,0.05,meteohub,2013-06-11 17:42:00,
2013-06-11 10:43:00,55.6,49.1,30.09,SW,219,5.0,11.0,74,0.00,,,0.05,meteohub,2013-06-11 17:43:00,
2013-06-11 10:44:00,55.6,49.1,30.09,SW,225,8.0,11.0,74,0.00,,,0.05,meteohub,2013-06-11 17:44:00,
2013-06-11 10:45:00,53.4,48.6,30.07,SW,221,4.0,10.0,64,0.00,,,0.05,meteohub,2013-06-11 17:45:00,
2013-06-11 10:46:00,55.6,49.1,30.09,SW,229,7.0,11.0,74,0.00,,,0.05,meteohub,2013-06-11 17:46:00,
2013-06-11 10:47:00,55.8,49.1,30.09,SW,221,5.0,11.0,74,0.00,,,0.05,meteohub,2013-06-11 17:47:00,
2013-06-11 10:49:00,55.8,49.1,30.09,SW,219,6.0,11.0,74,0.00,,,0.05,meteohub,2013-06-11 17:49:00,
2013-06-11 10:50:00,52.5,48.6,30.07,SW,217,5.0,10.0,66,0.00,,,0.05,meteohub,2013-06-11 17:50:00,
2013-06-11 10:51:00,55.8,49.1,30.09,SW,233,8.0,11.0,74,0.00,,,0.05,meteohub,2013-06-11 17:51:00,
2013-06-11 10:52:00,55.8,49.1,30.09,SW,233,6.0,11.0,74,0.00,,,0.05,meteohub,2013-06-11 17:52:00,
2013-06-11 10:55:00,52.5,48.6,30.07,SW,216,5.0,8.0,66,0.00,,,0.05,meteohub,2013-06-11 17:55:00,
2013-06-11 11:00:00,53.1,48.6,30.07,SW,217,5.0,8.0,65,0.00,,,0.05,meteohub,2013-06-11 18:00:00,
2013-06-11 11:04:00,54.9,49.3,30.09,SW,223,5.0,14.0,75,0.00,,,0.05,meteohub,2013-06-11 18:04:00,
2013-06-11 11:05:00,53.8,48.6,30.07,SW,226,5.0,11.0,65,0.00,,,0.05,meteohub,2013-06-11 18:05:00,
2013-06-11 11:07:00,55.0,49.3,30.09,SW,222,6.0,12.0,74,0.00,,,0.05,meteohub,2013-06-11 18:07:00,
2013-06-11 11:08:00,55.0,49.3,30.10,SW,223,4.0,12.0,74,0.00,,,0.05,meteohub,2013-06-11 18:08:00,
2013-06-11 11:09:00,55.0,49.3,30.10,SW,223,6.0,12.0,74,0.00,,,0.05,meteohub,2013-06-11 18:09:00,
2013-06-11 11:10:00,54.1,48.6,30.07,SW,221,8.0,11.0,66,0.00,,,0.05,meteohub,2013-06-11 18:10:00,
2013-06-11 11:11:00,54.9,49.3,30.09,SW,223,4.0,12.0,74,0.00,,,0.05,meteohub,2013-06-11 18:11:00,
2013-06-11 11:15:00,54.3,48.7,30.07,SW,222,6.0,11.0,67,0.00,,,0.05,meteohub,2013-06-11 18:15:00,
2013-06-11 11:16:00,54.9,49.3,30.10,SW,221,5.0,12.0,74,0.00,,,0.05,meteohub,2013-06-11 18:16:00,
2013-06-11 11:17:00,54.9,49.3,30.10,SW,221,6.0,12.0,74,0.00,,,0.05,meteohub,2013-06-11 18:17:00,
2013-06-11 11:20:00,54.5,48.7,30.08,SSW,212,7.0,11.0,69,0.00,,,0.05,meteohub,2013-06-11 18:20:00,
2013-06-11 11:21:00,54.9,49.3,30.10,SSW,212,8.0,12.0,74,0.00,,,0.05,meteohub,2013-06-11 18:21:00,
2013-06-11 11:22:00,54.9,49.3,30.10,SW,220,9.0,12.0,74,0.00,,,0.05,meteohub,2013-06-11 18:22:00,
2013-06-11 11:23:00,54.9,49.3,30.10,SSW,213,6.0,12.0,74,0.00,,,0.05,meteohub,2013-06-11 18:23:00,
2013-06-11 11:24:00,54.9,49.3,30.10,SW,218,7.0,12.0,74,0.00,,,0.05,meteohub,2013-06-11 18:24:00,
2013-06-11 11:25:00,54.7,48.7,30.08,SSW,211,5.0,10.0,70,0.00,,,0.05,meteohub,2013-06-11 18:25:00,
2013-06-11 11:27:00,55.2,49.3,30.10,SW,230,7.0,11.0,74,0.00,,,0.05,meteohub,2013-06-11 18:27:00,
2013-06-11 11:29:00,55.6,49.3,30.10,SW,221,4.0,11.0,74,0.00,,,0.05,meteohub,2013-06-11 18:29:00,
2013-06-11 11:30:00,54.1,48.7,30.08,South,177,6.0,10.0,71,0.00,,,0.05,meteohub,2013-06-11 18:30:00,
2013-06-11 11:33:00,56.1,49.3,30.10,SW,229,5.0,11.0,74,0.00,,,0.05,meteohub,2013-06-11 18:33:00,
2013-06-11 11:34:00,56.5,49.3,30.10,SW,219,7.0,11.0,74,0.00,,,0.05,meteohub,2013-06-11 18:34:00,
2013-06-11 11:35:00,54.7,48.7,30.08,SSW,212,6.0,11.0,70,0.00,,,0.05,meteohub,2013-06-11 18:35:00,
2013-06-11 11:36:00,56.7,49.3,30.10,SW,227,8.0,11.0,74,0.00,,,0.05,meteohub,2013-06-11 18:36:00,
2013-06-11 11:37:00,56.7,49.3,30.10,SW,229,6.0,11.0,74,0.00,,,0.05,meteohub,2013-06-11 18:37:00,
2013-06-11 11:39:00,56.8,49.3,30.10,SW,225,6.0,11.0,74,0.00,,,0.05,meteohub,2013-06-11 18:39:00,
2013-06-11 11:40:00,55.0,48.7,30.09,SW,219,6.0,11.0,71,0.00,,,0.05,meteohub,2013-06-11 18:40:00,
2013-06-11 11:41:00,56.8,49.3,30.10,SW,230,6.0,11.0,74,0.00,,,0.05,meteohub,2013-06-11 18:41:00,
2013-06-11 11:42:00,56.8,49.3,30.10,SW,225,8.0,11.0,74,0.00,,,0.05,meteohub,2013-06-11 18:42:00,
2013-06-11 11:43:00,57.0,49.3,30.10,SW,224,7.0,11.0,74,0.00,,,0.05,meteohub,2013-06-11 18:43:00,
2013-06-11 11:44:00,57.0,49.3,30.09,SW,224,6.0,13.0,74,0.00,,,0.05,meteohub,2013-06-11 18:44:00,
2013-06-11 11:45:00,55.8,48.7,30.09,SW,224,4.0,12.0,72,0.00,,,0.05,meteohub,2013-06-11 18:45:00,
2013-06-11 11:46:00,57.0,49.3,30.10,SW,220,6.0,13.0,74,0.00,,,0.05,meteohub,2013-06-11 18:46:00,
2013-06-11 11:47:00,57.2,49.3,30.10,SW,221,10.0,13.0,74,0.00,,,0.05,meteohub,2013-06-11 18:47:00,
2013-06-11 11:48:00,57.4,49.3,30.10,SW,225,8.0,13.0,76,0.00,,,0.05,meteohub,2013-06-11 18:48:00,
2013-06-11 11:49:00,57.4,49.3,30.10,SW,225,10.0,13.0,74,0.00,,,0.05,meteohub,2013-06-11 18:49:00,
2013-06-11 11:50:00,57.4,49.3,30.10,SW,223,7.0,13.0,74,0.00,,,0.05,meteohub,2013-06-11 18:50:00,
2013-06-11 11:51:00,55.9,48.9,30.09,SW,222,5.0,12.0,73,0.00,,,0.05,meteohub,2013-06-11 18:51:00,
2013-06-11 11:52:00,57.6,49.3,30.10,SW,223,8.0,13.0,74,0.00,,,0.05,meteohub,2013-06-11 18:52:00,
2013-06-11 11:53:00,57.6,49.3,30.10,SW,225,7.0,13.0,74,0.00,,,0.05,meteohub,2013-06-11 18:53:00,
2013-06-11 11:54:00,57.6,49.3,30.10,SW,225,7.0,13.0,74,0.00,,,0.05,meteohub,2013-06-11 18:54:00,
2013-06-11 11:55:00,57.6,49.3,30.10,SW,224,6.0,13.0,74,0.00,,,0.05,meteohub,2013-06-11 18:55:00,
2013-06-11 11:56:00,57.6,49.3,30.10,SW,222,6.0,13.0,74,0.00,,,0.05,meteohub,2013-06-11 18:56:00,
2013-06-11 11:57:00,57.6,49.3,30.10,SW,224,6.0,13.0,74,0.00,,,0.05,meteohub,2013-06-11 18:57:00,
2013-06-11 11:58:00,55.8,48.9,30.09,SW,224,6.0,12.0,73,0.00,,,0.05,meteohub,2013-06-11 18:58:00,
2013-06-11 11:59:00,57.7,49.3,30.09,SW,223,5.0,13.0,74,0.00,,,0.05,meteohub,2013-06-11 18:59:00,
2013-06-11 12:02:00,57.7,49.3,30.10,SW,224,6.0,13.0,74,0.00,,,0.05,meteohub,2013-06-11 19:02:00,
2013-06-11 12:03:00,55.4,48.9,30.09,SW,223,5.0,11.0,74,0.00,,,0.05,meteohub,2013-06-11 19:03:00,
2013-06-11 12:05:00,57.7,49.3,30.10,SW,223,7.0,13.0,74,0.00,,,0.05,meteohub,2013-06-11 19:05:00,
2013-06-11 12:07:00,57.7,49.3,30.10,SW,227,7.0,12.0,74,0.00,,,0.05,meteohub,2013-06-11 19:07:00,
2013-06-11 12:08:00,55.6,49.1,30.09,SW,222,6.0,11.0,74,0.00,,,0.05,meteohub,2013-06-11 19:08:00,
2013-06-11 12:10:00,57.7,49.5,30.10,SW,229,7.0,12.0,74,0.00,,,0.05,meteohub,2013-06-11 19:10:00,
2013-06-11 12:11:00,57.7,49.5,30.10,SW,229,7.0,12.0,74,0.00,,,0.05,meteohub,2013-06-11 19:11:00,
2013-06-11 12:12:00,57.7,49.5,30.10,SW,228,7.0,12.0,74,0.00,,,0.05,meteohub,2013-06-11 19:12:00,
2013-06-11 12:13:00,55.6,49.1,30.09,SW,229,8.0,11.0,74,0.00,,,0.05,meteohub,2013-06-11 19:13:00,
2013-06-11 12:15:00,57.7,49.5,30.10,SW,228,6.0,13.0,74,0.00,,,0.05,meteohub,2013-06-11 19:15:00,
2013-06-11 12:17:00,57.7,49.5,30.10,SW,229,10.0,13.0,74,0.00,,,0.05,meteohub,2013-06-11 19:17:00,
2013-06-11 12:18:00,57.7,49.5,30.10,SW,228,8.0,13.0,74,0.00,,,0.05,meteohub,2013-06-11 19:18:00,
2013-06-11 12:19:00,55.8,49.1,30.09,SW,226,6.0,11.0,74,0.00,,,0.05,meteohub,2013-06-11 19:19:00,
2013-06-11 12:20:00,57.7,49.5,30.10,SW,225,8.0,13.0,73,0.00,,,0.05,meteohub,2013-06-11 19:20:00,
2013-06-11 12:22:00,57.6,49.5,30.10,SW,225,6.0,13.0,74,0.00,,,0.05,meteohub,2013-06-11 19:22:00,
2013-06-11 12:23:00,57.6,49.5,30.10,SW,225,7.0,13.0,74,0.00,,,0.05,meteohub,2013-06-11 19:23:00,
2013-06-11 12:24:00,55.6,49.1,30.09,SW,227,12.0,14.0,74,0.00,,,0.05,meteohub,2013-06-11 19:24:00,
2013-06-11 12:25:00,57.4,49.5,30.10,SW,225,10.0,12.0,74,0.00,,,0.05,meteohub,2013-06-11 19:25:00,
2013-06-11 12:27:00,57.6,49.5,30.10,SW,227,7.0,12.0,74,0.00,,,0.05,meteohub,2013-06-11 19:27:00,
2013-06-11 12:28:00,57.6,49.5,30.10,SW,226,7.0,12.0,74,0.00,,,0.05,meteohub,2013-06-11 19:28:00,
2013-06-11 12:29:00,55.2,49.1,30.10,SW,227,6.0,14.0,74,0.00,,,0.05,meteohub,2013-06-11 19:29:00,
2013-06-11 12:32:00,57.6,49.8,30.10,SW,226,8.0,12.0,73,0.00,,,0.05,meteohub,2013-06-11 19:32:00,
2013-06-11 12:35:00,54.9,49.3,30.09,SW,223,6.0,12.0,74,0.00,,,0.05,meteohub,2013-06-11 19:35:00,
2013-06-11 12:36:00,57.4,49.6,30.10,SW,223,8.0,12.0,74,0.00,,,0.05,meteohub,2013-06-11 19:36:00,
2013-06-11 12:38:00,57.4,49.6,30.10,SW,223,4.0,12.0,74,0.00,,,0.05,meteohub,2013-06-11 19:38:00,
2013-06-11 12:40:00,54.9,49.3,30.10,SW,221,6.0,12.0,74,0.00,,,0.05,meteohub,2013-06-11 19:40:00,
2013-06-11 12:41:00,57.4,49.6,30.10,SW,227,7.0,12.0,74,0.00,,,0.05,meteohub,2013-06-11 19:41:00,
2013-06-11 12:42:00,57.4,49.6,30.11,SW,228,12.0,12.0,74,0.00,,,0.05,meteohub,2013-06-11 19:42:00,
2013-06-11 12:43:00,57.4,49.6,30.11,SW,228,8.0,12.0,74,0.00,,,0.05,meteohub,2013-06-11 19:43:00,
2013-06-11 12:45:00,57.4,49.6,30.11,SW,227,6.0,12.0,74,0.00,,,0.05,meteohub,2013-06-11 19:45:00,
2013-06-11 12:47:00,54.9,49.3,30.10,SW,222,7.0,12.0,74,0.00,,,0.05,meteohub,2013-06-11 19:47:00,
2013-06-11 12:48:00,57.4,49.6,30.11,SW,217,6.0,12.0,74,0.00,,,0.05,meteohub,2013-06-11 19:48:00,
2013-06-11 12:50:00,57.2,49.6,30.11,SW,220,8.0,12.0,74,0.00,,,0.05,meteohub,2013-06-11 19:50:00,
2013-06-11 12:51:00,57.2,50.2,30.11,SW,222,7.0,12.0,74,0.00,,,0.05,meteohub,2013-06-11 19:51:00,
2013-06-11 12:52:00,57.2,49.6,30.11,SW,217,9.0,12.0,74,0.00,,,0.05,meteohub,2013-06-11 19:52:00,
2013-06-11 12:53:00,55.0,49.3,30.10,SW,221,7.0,11.0,74,0.00,,,0.05,meteohub,2013-06-11 19:53:00,
2013-06-11 12:55:00,57.0,49.6,30.11,SW,219,12.0,13.0,74,0.00,,,0.05,meteohub,2013-06-11 19:55:00,
2013-06-11 12:56:00,57.0,49.6,30.11,SW,219,4.0,13.0,74,0.00,,,0.05,meteohub,2013-06-11 19:56:00,
2013-06-11 12:57:00,57.0,50.2,30.11,SW,227,10.0,13.0,74,0.00,,,0.05,meteohub,2013-06-11 19:57:00,
2013-06-11 12:59:00,55.8,49.3,30.10,SW,227,7.0,11.0,74,0.00,,,0.05,meteohub,2013-06-11 19:59:00,
2013-06-11 13:02:00,57.0,49.6,30.11,SW,219,5.0,13.0,74,0.00,,,0.05,meteohub,2013-06-11 20:02:00,
2013-06-11 13:04:00,56.7,49.3,30.10,SW,229,8.0,11.0,74,0.00,,,0.05,meteohub,2013-06-11 20:04:00,
2013-06-11 13:09:00,57.0,49.8,30.11,SSW,209,6.0,13.0,74,0.00,,,0.05,meteohub,2013-06-11 20:09:00,
2013-06-11 13:11:00,57.2,49.8,30.11,SSW,197,6.0,13.0,74,0.00,,,0.05,meteohub,2013-06-11 20:11:00,
2013-06-11 13:12:00,57.0,49.3,30.09,SW,225,7.0,11.0,74,0.00,,,0.05,meteohub,2013-06-11 20:12:00,
2013-06-11 13:14:00,57.6,50.4,30.11,SW,217,5.0,13.0,75,0.00,,,0.05,meteohub,2013-06-11 20:14:00,
2013-06-11 13:15:00,57.6,50.4,30.11,SW,217,10.0,13.0,75,0.00,,,0.05,meteohub,2013-06-11 20:15:00,
2013-06-11 13:17:00,57.6,50.5,30.11,SW,223,10.0,13.0,74,0.00,,,0.05,meteohub,2013-06-11 20:17:00,
2013-06-11 13:18:00,57.4,49.3,30.10,SW,224,6.0,13.0,74,0.00,,,0.05,meteohub,2013-06-11 20:18:00,
2013-06-11 13:20:00,57.6,50.5,30.11,SW,223,6.0,13.0,74,0.00,,,0.05,meteohub,2013-06-11 20:20:00,
2013-06-11 13:22:00,57.6,50.5,30.11,SW,223,8.0,13.0,74,0.00,,,0.05,meteohub,2013-06-11 20:22:00,
2013-06-11 13:23:00,57.4,50.5,30.11,SW,225,6.0,13.0,74,0.00,,,0.05,meteohub,2013-06-11 20:23:00,
2013-06-11 13:25:00,57.6,49.3,30.10,SW,224,8.0,13.0,74,0.00,,,0.05,meteohub,2013-06-11 20:25:00,
2013-06-11 13:27:00,57.4,50.5,30.11,SW,225,7.0,11.0,74,0.00,,,0.05,meteohub,2013-06-11 20:27:00,
2013-06-11 13:29:00,57.4,50.5,30.11,SW,218,8.0,11.0,74,0.00,,,0.05,meteohub,2013-06-11 20:29:00,
2013-06-11 13:30:00,57.7,49.3,30.10,SW,224,6.0,13.0,74,0.00,,,0.05,meteohub,2013-06-11 20:30:00,
2013-06-11 13:31:00,57.4,50.5,30.11,SW,221,7.0,11.0,74,0.00,,,0.05,meteohub,2013-06-11 20:31:00,
2013-06-11 13:33:00,57.4,50.7,30.11,SW,221,7.0,11.0,74,0.00,,,0.05,meteohub,2013-06-11 20:33:00,
2013-06-11 13:35:00,57.7,49.3,30.10,SW,227,5.0,12.0,74,0.00,,,0.05,meteohub,2013-06-11 20:35:00,
2013-06-11 13:37:00,57.4,50.7,30.11,SW,223,9.0,11.0,74,0.00,,,0.05,meteohub,2013-06-11 20:37:00,
2013-06-11 13:40:00,57.7,49.5,30.10,SW,229,8.0,12.0,74,0.00,,,0.05,meteohub,2013-06-11 20:40:00,
2013-06-11 13:45:00,57.7,49.5,30.10,SW,230,7.0,13.0,74,0.00,,,0.05,meteohub,2013-06-11 20:45:00,
2013-06-11 13:47:00,57.0,50.7,30.11,SW,223,6.0,11.0,74,0.00,,,0.05,meteohub,2013-06-11 20:47:00,
2013-06-11 13:49:00,57.0,50.7,30.12,SW,225,6.0,11.0,75,0.00,,,0.05,meteohub,2013-06-11 20:49:00,
2013-06-11 13:50:00,57.6,49.5,30.10,SW,225,6.0,13.0,74,0.00,,,0.05,meteohub,2013-06-11 20:50:00,
2013-06-11 13:51:00,57.2,50.7,30.12,SW,223,6.0,11.0,75,0.00,,,0.05,meteohub,2013-06-11 20:51:00,
2013-06-11 13:56:00,57.6,49.5,30.10,SW,227,6.0,12.0,74,0.00,,,0.05,meteohub,2013-06-11 20:56:00,
2013-06-11 13:57:00,57.7,50.7,30.12,SW,230,7.0,11.0,75,0.00,,,0.05,meteohub,2013-06-11 20:57:00,
2013-06-11 13:59:00,57.9,50.7,30.12,SW,226,4.0,11.0,75,0.00,,,0.05,meteohub,2013-06-11 20:59:00,
2013-06-11 14:01:00,57.6,49.8,30.10,SW,226,7.0,12.0,74,0.00,,,0.05,meteohub,2013-06-11 21:01:00,
2013-06-11 14:02:00,58.3,51.1,30.12,SW,227,6.0,11.0,74,0.00,,,0.05,meteohub,2013-06-11 21:02:00,
2013-06-11 14:04:00,58.3,51.1,30.12,SW,223,10.0,11.0,74,0.00,,,0.05,meteohub,2013-06-11 21:04:00,
2013-06-11 14:07:00,57.4,49.6,30.11,SW,224,8.0,12.0,74,0.00,,,0.05,meteohub,2013-06-11 21:07:00,
2013-06-11 14:08:00,58.1,51.3,30.12,SW,223,6.0,12.0,74,0.00,,,0.05,meteohub,2013-06-11 21:08:00,
2013-06-11 14:09:00,58.1,51.3,30.12,SW,223,7.0,12.0,74,0.00,,,0.05,meteohub,2013-06-11 21:09:00,
2013-06-11 14:10:00,57.9,51.3,30.12,SW,222,8.0,12.0,74,0.00,,,0.05,meteohub,2013-06-11 21:10:00,
2013-06-11 14:11:00,57.9,51.3,30.12,SW,221,5.0,12.0,74,0.00,,,0.05,meteohub,2013-06-11 21:11:00,
2013-06-11 14:12:00,57.4,49.6,30.11,SW,229,7.0,12.0,74,0.00,,,0.05,meteohub,2013-06-11 21:12:00,
2013-06-11 14:13:00,57.7,51.3,30.12,SW,220,5.0,12.0,74,0.00,,,0.05,meteohub,2013-06-11 21:13:00,
2013-06-11 14:14:00,57.7,51.3,30.12,SW,223,5.0,12.0,74,0.00,,,0.05,meteohub,2013-06-11 21:14:00,
2013-06-11 14:15:00,57.7,51.3,30.12,SW,223,6.0,12.0,74,0.00,,,0.05,meteohub,2013-06-11 21:15:00,
2013-06-11 14:16:00,57.7,51.3,30.12,SW,223,12.0,12.0,74,0.00,,,0.05,meteohub,2013-06-11 21:16:00,
2013-06-11 14:17:00,57.7,51.3,30.12,SW,223,8.0,12.0,74,0.00,,,0.05,meteohub,2013-06-11 21:17:00,
2013-06-11 14:18:00,57.4,49.6,30.11,SW,221,9.0,12.0,74,0.00,,,0.05,meteohub,2013-06-11 21:18:00,
2013-06-11 14:19:00,57.6,51.3,30.12,SW,224,4.0,12.0,74,0.00,,,0.05,meteohub,2013-06-11 21:19:00,
2013-06-11 14:20:00,57.6,51.3,30.12,SW,224,6.0,12.0,74,0.00,,,0.05,meteohub,2013-06-11 21:20:00,
2013-06-11 14:21:00,57.6,51.3,30.12,SW,223,5.0,12.0,74,0.00,,,0.05,meteohub,2013-06-11 21:21:00,
2013-06-11 14:22:00,57.6,51.3,30.12,SW,223,5.0,12.0,74,0.00,,,0.05,meteohub,2013-06-11 21:22:00,
2013-06-11 14:23:00,57.0,50.2,30.11,SW,217,9.0,13.0,74,0.00,,,0.05,meteohub,2013-06-11 21:23:00,
2013-06-11 14:24:00,57.4,51.3,30.12,SW,223,6.0,12.0,74,0.00,,,0.05,meteohub,2013-06-11 21:24:00,
2013-06-11 14:25:00,57.4,51.3,30.12,SW,223,5.0,12.0,74,0.00,,,0.05,meteohub,2013-06-11 21:25:00,
2013-06-11 14:26:00,57.4,51.3,30.12,SW,223,6.0,12.0,74,0.00,,,0.05,meteohub,2013-06-11 21:26:00,
2013-06-11 14:27:00,57.2,51.3,30.12,SW,223,10.0,12.0,74,0.00,,,0.05,meteohub,2013-06-11 21:27:00,
2013-06-11 14:28:00,57.0,51.3,30.12,SW,219,7.0,12.0,74,0.00,,,0.05,meteohub,2013-06-11 21:28:00,
2013-06-11 14:29:00,57.0,49.6,30.11,SW,217,7.0,13.0,74,0.00,,,0.05,meteohub,2013-06-11 21:29:00,
2013-06-11 14:30:00,57.0,51.3,30.12,SW,221,6.0,12.0,74,0.00,,,0.05,meteohub,2013-06-11 21:30:00,
2013-06-11 14:31:00,57.0,51.3,30.12,SW,221,8.0,12.0,75,0.00,,,0.05,meteohub,2013-06-11 21:31:00,
2013-06-11 14:32:00,57.0,51.3,30.12,SW,220,8.0,12.0,75,0.00,,,0.05,meteohub,2013-06-11 21:32:00,
2013-06-11 14:34:00,57.0,49.8,30.11,SW,223,8.0,13.0,74,0.00,,,0.05,meteohub,2013-06-11 21:34:00,
2013-06-11 14:35:00,57.2,51.3,30.12,SW,228,6.0,11.0,75,0.00,,,0.05,meteohub,2013-06-11 21:35:00,
2013-06-11 14:36:00,57.4,51.4,30.12,SW,229,4.0,11.0,75,0.00,,,0.05,meteohub,2013-06-11 21:36:00,
2013-06-11 14:39:00,57.2,49.8,30.11,SSW,212,6.0,13.0,74,0.00,,,0.05,meteohub,2013-06-11 21:39:00,
2013-06-11 14:40:00,57.9,51.4,30.12,SW,228,6.0,11.0,74,0.00,,,0.05,meteohub,2013-06-11 21:40:00,
2013-06-11 14:42:00,58.3,51.4,30.12,SW,226,6.0,11.0,74,0.00,,,0.05,meteohub,2013-06-11 21:42:00,
2013-06-11 14:44:00,57.6,50.4,30.11,SW,220,8.0,13.0,74,0.00,,,0.05,meteohub,2013-06-11 21:44:00,
2013-06-11 14:45:00,58.5,51.6,30.12,SW,225,7.0,11.0,73,0.00,,,0.05,meteohub,2013-06-11 21:45:00,
2013-06-11 14:46:00,58.5,51.6,30.12,SW,227,8.0,11.0,73,0.00,,,0.05,meteohub,2013-06-11 21:46:00,
2013-06-11 14:47:00,58.5,51.6,30.12,SW,226,5.0,11.0,73,0.00,,,0.05,meteohub,2013-06-11 21:47:00,
2013-06-11 14:49:00,58.3,51.6,30.12,SW,228,7.0,11.0,73,0.00,,,0.05,meteohub,2013-06-11 21:49:00,
2013-06-11 14:50:00,57.6,50.5,30.11,SW,223,9.0,13.0,74,0.00,,,0.05,meteohub,2013-06-11 21:50:00,
2013-06-11 14:51:00,58.1,51.6,30.12,SW,228,6.0,11.0,73,0.00,,,0.05,meteohub,2013-06-11 21:51:00,
2013-06-11 14:52:00,57.9,51.6,30.12,SW,227,7.0,11.0,73,0.00,,,0.05,meteohub,2013-06-11 21:52:00,
2013-06-11 14:54:00,57.9,51.8,30.12,SW,230,7.0,11.0,74,0.00,,,0.05,meteohub,2013-06-11 21:54:00,
2013-06-11 14:55:00,57.4,50.5,30.11,SW,225,6.0,11.0,74,0.00,,,0.05,meteohub,2013-06-11 21:55:00,
2013-06-11 14:56:00,57.7,51.8,30.12,SW,227,8.0,11.0,73,0.00,,,0.05,meteohub,2013-06-11 21:56:00,
2013-06-11 14:57:00,57.7,51.8,30.12,SW,227,7.0,11.0,73,0.00,,,0.05,meteohub,2013-06-11 21:57:00,
2013-06-11 14:58:00,57.6,51.8,30.12,SW,223,4.0,11.0,73,0.00,,,0.05,meteohub,2013-06-11 21:58:00,
2013-06-11 15:00:00,57.4,50.7,30.11,SW,221,10.0,11.0,74,0.00,,,0.05,meteohub,2013-06-11 22:00:00,
2013-06-11 15:02:00,57.2,51.8,30.12,SW,221,9.0,11.0,74,0.00,,,0.05,meteohub,2013-06-11 22:02:00,
2013-06-11 15:04:00,57.0,51.8,30.12,SW,223,7.0,11.0,74,0.00,,,0.05,meteohub,2013-06-11 22:04:00,
2013-06-11 15:05:00,56.8,52.2,30.12,SW,225,8.0,11.0,74,0.00,,,0.05,meteohub,2013-06-11 22:05:00,
2013-06-11 15:06:00,57.4,50.7,30.11,SW,219,6.0,11.0,74,0.00,,,0.05,meteohub,2013-06-11 22:06:00,
2013-06-11 15:10:00,56.7,52.2,30.12,SW,223,7.0,11.0,75,0.00,,,0.05,meteohub,2013-06-11 22:10:00,
2013-06-11 15:11:00,57.2,50.7,30.11,SW,222,5.0,11.0,74,0.00,,,0.05,meteohub,2013-06-11 22:11:00,
2013-06-11 15:12:00,56.7,52.2,30.12,SW,223,7.0,11.0,75,0.00,,,0.05,meteohub,2013-06-11 22:12:00,
2013-06-11 15:16:00,57.0,50.7,30.11,SW,223,8.0,11.0,74,0.00,,,0.05,meteohub,2013-06-11 22:16:00,
2013-06-11 15:17:00,56.5,52.2,30.12,SW,225,6.0,11.0,75,0.00,,,0.05,meteohub,2013-06-11 22:17:00,
2013-06-11 15:18:00,56.5,52.2,30.12,SW,225,6.0,11.0,75,0.00,,,0.05,meteohub,2013-06-11 22:18:00,
2013-06-11 15:21:00,57.4,50.7,30.12,SW,221,6.0,11.0,75,0.00,,,0.05,meteohub,2013-06-11 22:21:00,
2013-06-11 15:25:00,56.1,52.2,30.12,SW,225,11.0,11.0,75,0.00,,,0.05,meteohub,2013-06-11 22:25:00,
2013-06-11 15:27:00,57.7,50.7,30.12,SW,224,6.0,11.0,75,0.00,,,0.05,meteohub,2013-06-11 22:27:00,
2013-06-11 15:29:00,56.1,52.2,30.12,SW,221,6.0,11.0,75,0.00,,,0.05,meteohub,2013-06-11 22:29:00,
2013-06-11 15:31:00,56.1,52.2,30.12,SW,224,7.0,11.0,75,0.00,,,0.05,meteohub,2013-06-11 22:31:00,
2013-06-11 15:32:00,58.3,51.1,30.12,SW,224,9.0,11.0,74,0.00,,,0.05,meteohub,2013-06-11 22:32:00,
2013-06-11 15:33:00,55.9,52.2,30.12,SW,229,7.0,11.0,75,0.00,,,0.05,meteohub,2013-06-11 22:33:00,
2013-06-11 15:34:00,55.9,52.2,30.12,SW,232,10.0,11.0,75,0.00,,,0.05,meteohub,2013-06-11 22:34:00,
2013-06-11 15:35:00,55.9,52.2,30.12,SW,235,12.0,12.0,75,0.00,,,0.05,meteohub,2013-06-11 22:35:00,
2013-06-11 15:38:00,57.9,51.3,30.12,SW,221,11.0,12.0,74,0.00,,,0.05,meteohub,2013-06-11 22:38:00,
2013-06-11 15:44:00,57.7,51.3,30.12,SW,222,7.0,12.0,74,0.00,,,0.05,meteohub,2013-06-11 22:44:00,
2013-06-11 15:51:00,57.6,51.3,30.12,SW,224,7.0,12.0,74,0.00,,,0.05,meteohub,2013-06-11 22:51:00,
2013-06-11 15:59:00,57.0,51.3,30.12,SW,220,6.0,12.0,74,0.00,,,0.05,meteohub,2013-06-11 22:59:00,
2013-06-11 16:04:00,57.4,51.4,30.12,SW,228,4.0,11.0,75,0.00,,,0.05,meteohub,2013-06-11 23:04:00,
2013-06-11 16:10:00,58.3,51.4,30.12,SW,227,7.0,11.0,74,0.00,,,0.05,meteohub,2013-06-11 23:10:00,
2013-06-11 16:12:00,55.0,52.2,30.12,SW,236,5.0,10.0,75,0.00,,,0.05,meteohub,2013-06-11 23:12:00,
2013-06-11 16:14:00,55.0,52.2,30.12,SW,235,4.0,7.0,75,0.00,,,0.05,meteohub,2013-06-11 23:14:00,
2013-06-11 16:15:00,58.5,51.6,30.12,SW,225,5.0,11.0,73,0.00,,,0.05,meteohub,2013-06-11 23:15:00,
2013-06-11 16:20:00,54.9,52.2,30.12,SW,234,4.0,7.0,75,0.00,,,0.05,meteohub,2013-06-11 23:20:00,
2013-06-11 16:21:00,57.9,51.6,30.12,SW,227,6.0,11.0,74,0.00,,,0.05,meteohub,2013-06-11 23:21:00,
2013-06-11 16:22:00,54.9,52.2,30.12,SW,234,4.0,7.0,75,0.00,,,0.05,meteohub,2013-06-11 23:22:00,
2013-06-11 16:24:00,54.9,52.2,30.12,SW,234,3.0,7.0,75,0.00,,,0.05,meteohub,2013-06-11 23:24:00,
2013-06-11 16:25:00,54.9,52.2,30.12,SW,234,3.0,7.0,75,0.00,,,0.05,meteohub,2013-06-11 23:25:00,
2013-06-11 16:26:00,54.9,52.2,30.12,SW,234,4.0,7.0,75,0.00,,,0.05,meteohub,2013-06-11 23:26:00,
2013-06-11 16:28:00,57.6,51.8,30.12,SW,222,6.0,11.0,74,0.00,,,0.05,meteohub,2013-06-11 23:28:00,
2013-06-11 16:32:00,54.7,52.0,30.12,SW,234,4.0,7.0,75,0.00,,,0.05,meteohub,2013-06-11 23:32:00,
2013-06-11 16:33:00,56.8,52.2,30.12,SW,225,6.0,11.0,74,0.00,,,0.05,meteohub,2013-06-11 23:33:00,
2013-06-11 16:34:00,54.7,52.0,30.12,SW,234,5.0,7.0,75,0.00,,,0.05,meteohub,2013-06-11 23:34:00,
2013-06-11 16:35:00,54.5,52.0,30.12,SW,234,5.0,7.0,75,0.00,,,0.05,meteohub,2013-06-11 23:35:00,
2013-06-11 16:36:00,54.5,52.0,30.12,SW,234,4.0,7.0,75,0.00,,,0.05,meteohub,2013-06-11 23:36:00,
2013-06-11 16:39:00,56.7,52.2,30.12,SW,222,8.0,11.0,75,0.00,,,0.05,meteohub,2013-06-11 23:39:00,
2013-06-11 16:40:00,54.3,52.0,30.12,SW,234,4.0,7.0,75,0.00,,,0.05,meteohub,2013-06-11 23:40:00,
2013-06-11 16:42:00,54.3,52.0,30.12,SW,234,5.0,7.0,75,0.00,,,0.05,meteohub,2013-06-11 23:42:00,
2013-06-11 16:43:00,54.1,52.0,30.12,SW,234,4.0,7.0,75,0.00,,,0.05,meteohub,2013-06-11 23:43:00,
2013-06-11 16:44:00,56.5,52.2,30.12,SW,222,7.0,11.0,75,0.00,,,0.05,meteohub,2013-06-11 23:44:00,
2013-06-11 16:46:00,54.1,52.0,30.12,SW,234,2.0,8.0,75,0.00,,,0.05,meteohub,2013-06-11 23:46:00,
2013-06-11 16:47:00,54.1,52.0,30.12,SW,234,2.0,8.0,75,0.00,,,0.05,meteohub,2013-06-11 23:47:00,
2013-06-11 16:48:00,54.1,52.0,30.12,SW,234,2.0,8.0,75,0.00,,,0.05,meteohub,2013-06-11 23:48:00,
2013-06-11 16:49:00,56.5,52.2,30.12,SW,223,9.0,11.0,75,0.00,,,0.05,meteohub,2013-06-11 23:49:00,
2013-06-11 16:50:00,54.3,52.0,30.12,SW,234,2.0,8.0,75,0.00,,,0.05,meteohub,2013-06-11 23:50:00,
2013-06-11 16:51:00,54.3,52.0,30.12,SW,234,4.0,8.0,75,0.00,,,0.05,meteohub,2013-06-11 23:51:00,
2013-06-11 16:54:00,56.1,52.2,30.12,SW,223,6.0,11.0,75,0.00,,,0.05,meteohub,2013-06-11 23:54:00,
2013-06-11 16:55:00,54.1,52.0,30.12,SW,234,5.0,6.0,75,0.00,,,0.05,meteohub,2013-06-11 23:55:00,
2013-06-11 16:56:00,54.1,52.0,30.12,SW,234,7.0,7.0,75,0.00,,,0.05,meteohub,2013-06-11 23:56:00,
2013-06-11 16:57:00,54.1,51.8,30.12,SW,235,4.0,6.0,75,0.00,,,0.05,meteohub,2013-06-11 23:57:00,
2013-06-11 16:58:00,54.1,51.8,30.12,SW,234,3.0,6.0,75,0.00,,,0.05,meteohub,2013-06-11 23:58:00,
2013-06-11 17:00:00,56.1,52.2,30.12,SW,223,10.0,11.0,75,0.00,,,0.05,meteohub,2013-06-12 00:00:00,
2013-06-11 17:03:00,54.1,51.8,30.12,SW,234,4.0,6.0,75,0.00,,,0.05,meteohub,2013-06-12 00:03:00,
2013-06-11 17:05:00,55.9,52.2,30.12,SW,229,11.0,13.0,75,0.00,,,0.05,meteohub,2013-06-12 00:05:00,
2013-06-11 17:06:00,54.1,51.4,30.12,SW,234,4.0,8.0,75,0.00,,,0.05,meteohub,2013-06-12 00:06:00,
2013-06-11 17:09:00,54.1,51.8,30.12,SW,234,6.0,8.0,75,0.00,,,0.05,meteohub,2013-06-12 00:09:00,
2013-06-11 17:10:00,55.6,52.7,30.12,WSW,238,7.0,13.0,75,0.00,,,0.05,meteohub,2013-06-12 00:10:00,
2013-06-11 17:15:00,55.4,52.2,30.12,WSW,238,7.0,15.0,76,0.00,,,0.05,meteohub,2013-06-12 00:15:00,
2013-06-11 17:17:00,54.1,51.4,30.12,SW,234,7.0,7.0,75,0.00,,,0.00,meteohub,2013-06-12 00:17:00,
2013-06-11 17:20:00,55.2,52.2,30.12,WSW,238,4.0,15.0,76,0.00,,,0.05,meteohub,2013-06-12 00:20:00,
2013-06-11 17:23:00,54.0,51.3,30.12,SW,234,3.0,7.0,75,0.00,,,0.00,meteohub,2013-06-12 00:23:00,
2013-06-11 17:24:00,53.8,51.3,30.12,SW,234,4.0,8.0,75,0.00,,,0.00,meteohub,2013-06-12 00:24:00,
2013-06-11 17:25:00,55.0,52.2,30.12,WSW,238,2.0,13.0,76,0.00,,,0.05,meteohub,2013-06-12 00:25:00,
2013-06-11 17:26:00,53.8,51.3,30.12,SW,234,3.0,8.0,75,0.00,,,0.00,meteohub,2013-06-12 00:26:00,
2013-06-11 17:29:00,53.8,51.3,30.12,SW,234,2.0,8.0,75,0.00,,,0.00,meteohub,2013-06-12 00:29:00,
2013-06-11 17:30:00,55.0,52.2,30.12,WSW,237,2.0,13.0,76,0.00,,,0.05,meteohub,2013-06-12 00:30:00,
2013-06-11 17:35:00,55.2,52.2,30.12,WSW,237,3.0,10.0,75,0.00,,,0.05,meteohub,2013-06-12 00:35:00,
2013-06-11 17:40:00,55.2,52.2,30.12,SW,236,4.0,10.0,75,0.00,,,0.05,meteohub,2013-06-12 00:40:00,
2013-06-11 17:45:00,54.9,52.2,30.12,SW,235,6.0,7.0,75,0.00,,,0.05,meteohub,2013-06-12 00:45:00,
2013-06-11 17:51:00,54.9,52.2,30.12,SW,234,6.0,7.0,75,0.00,,,0.05,meteohub,2013-06-12 00:51:00,
2013-06-11 17:56:00,54.9,52.2,30.12,SW,234,4.0,7.0,75,0.00,,,0.05,meteohub,2013-06-12 00:56:00,
2013-06-11 17:57:00,53.4,51.3,30.12,SW,234,4.0,6.0,76,0.00,,,0.00,meteohub,2013-06-12 00:57:00,
2013-06-11 18:00:00,53.4,51.3,30.12,SW,234,2.0,6.0,76,0.00,,,0.00,meteohub,2013-06-12 01:00:00,
2013-06-11 18:01:00,54.7,52.0,30.12,SW,234,5.0,7.0,75,0.00,,,0.05,meteohub,2013-06-12 01:01:00,
2013-06-11 18:02:00,53.4,51.3,30.12,SW,234,3.0,6.0,76,0.00,,,0.00,meteohub,2013-06-12 01:02:00,
2013-06-11 18:03:00,53.2,51.3,30.12,SW,234,1.0,6.0,76,0.00,,,0.00,meteohub,2013-06-12 01:03:00,
2013-06-11 18:06:00,54.3,52.0,30.12,SW,234,3.0,7.0,75,0.00,,,0.05,meteohub,2013-06-12 01:06:00,
2013-06-11 18:07:00,53.2,51.3,30.12,SW,234,0.0,6.0,75,0.00,,,0.00,meteohub,2013-06-12 01:07:00,
2013-06-11 18:09:00,53.4,51.3,30.12,SW,234,2.0,6.0,75,0.00,,,0.00,meteohub,2013-06-12 01:09:00,
2013-06-11 18:10:00,53.4,51.1,30.12,SW,234,1.0,6.0,75,0.00,,,0.00,meteohub,2013-06-12 01:10:00,
2013-06-11 18:12:00,53.4,51.1,30.12,SW,234,3.0,6.0,75,0.00,,,0.00,meteohub,2013-06-12 01:12:00,
2013-06-11 18:13:00,54.1,52.0,30.12,SW,234,5.0,7.0,75,0.00,,,0.05,meteohub,2013-06-12 01:13:00,
2013-06-11 18:14:00,53.4,51.1,30.12,SW,234,4.0,4.0,75,0.00,,,0.00,meteohub,2013-06-12 01:14:00,
2013-06-11 18:16:00,53.6,51.1,30.12,SW,234,3.0,4.0,75,0.00,,,0.00,meteohub,2013-06-12 01:16:00,
2013-06-11 18:17:00,53.6,51.1,30.12,SW,234,1.0,4.0,75,0.00,,,0.00,meteohub,2013-06-12 01:17:00,
2013-06-11 18:19:00,54.3,52.0,30.12,SW,234,4.0,8.0,75,0.00,,,0.05,meteohub,2013-06-12 01:19:00,
2013-06-11 18:20:00,53.4,51.1,30.12,SW,234,2.0,4.0,75,0.00,,,0.00,meteohub,2013-06-12 01:20:00,
2013-06-11 18:21:00,53.4,51.1,30.12,SW,234,3.0,4.0,75,0.00,,,0.00,meteohub,2013-06-12 01:21:00,
2013-06-11 18:22:00,53.4,51.1,30.12,SW,234,1.0,4.0,75,0.00,,,0.00,meteohub,2013-06-12 01:22:00,
2013-06-11 18:24:00,53.2,51.1,30.12,SW,234,0.0,4.0,75,0.00,,,0.00,meteohub,2013-06-12 01:24:00,
2013-06-11 18:25:00,53.2,51.1,30.12,SW,234,1.0,5.0,75,0.00,,,0.00,meteohub,2013-06-12 01:25:00,
2013-06-11 18:26:00,54.1,51.8,30.12,SW,235,5.0,6.0,75,0.00,,,0.05,meteohub,2013-06-12 01:26:00,
2013-06-11 18:27:00,53.2,51.1,30.12,SW,234,3.0,5.0,75,0.00,,,0.00,meteohub,2013-06-12 01:27:00,
2013-06-11 18:28:00,53.2,51.1,30.12,SW,234,1.0,5.0,75,0.00,,,0.00,meteohub,2013-06-12 01:28:00,
2013-06-11 18:29:00,53.2,51.1,30.12,SW,234,0.0,5.0,75,0.00,,,0.00,meteohub,2013-06-12 01:29:00,
2013-06-11 18:30:00,53.2,51.1,30.12,SW,234,1.0,5.0,75,0.00,,,0.00,meteohub,2013-06-12 01:30:00,
2013-06-11 18:31:00,54.1,51.8,30.12,SW,234,4.0,6.0,75,0.00,,,0.05,meteohub,2013-06-12 01:31:00,
2013-06-11 18:32:00,53.2,51.1,30.12,SW,234,2.0,5.0,75,0.00,,,0.00,meteohub,2013-06-12 01:32:00,
2013-06-11 18:33:00,53.1,51.1,30.12,SW,234,0.0,5.0,75,0.00,,,0.00,meteohub,2013-06-12 01:33:00,
2013-06-11 18:36:00,54.1,51.4,30.12,SW,234,3.0,8.0,75,0.00,,,0.05,meteohub,2013-06-12 01:36:00,
2013-06-11 18:37:00,53.1,50.7,30.12,SW,234,3.0,5.0,75,0.00,,,0.00,meteohub,2013-06-12 01:37:00,
2013-06-11 18:39:00,53.1,50.7,30.12,SW,234,0.0,5.0,75,0.00,,,0.00,meteohub,2013-06-12 01:39:00,
2013-06-11 18:40:00,53.1,50.7,30.12,SW,234,0.0,5.0,75,0.00,,,0.00,meteohub,2013-06-12 01:40:00,
2013-06-11 18:41:00,53.1,50.7,30.12,SW,234,0.0,5.0,75,0.00,,,0.00,meteohub,2013-06-12 01:41:00,
2013-06-11 18:42:00,54.1,51.4,30.12,SW,234,4.0,8.0,75,0.00,,,0.00,meteohub,2013-06-12 01:42:00,
2013-06-11 18:44:00,53.1,50.7,30.12,SW,234,2.0,5.0,75,0.00,,,0.00,meteohub,2013-06-12 01:44:00,
2013-06-11 18:45:00,53.1,50.7,30.12,SW,234,1.0,4.0,75,0.00,,,0.00,meteohub,2013-06-12 01:45:00,
2013-06-11 18:46:00,53.1,50.7,30.12,SW,234,3.0,4.0,75,0.00,,,0.00,meteohub,2013-06-12 01:46:00,
2013-06-11 18:47:00,54.0,51.4,30.12,SW,234,7.0,7.0,75,0.00,,,0.00,meteohub,2013-06-12 01:47:00,
2013-06-11 18:48:00,53.1,50.7,30.12,SW,234,2.0,4.0,75,0.00,,,0.00,meteohub,2013-06-12 01:48:00,
2013-06-11 18:49:00,53.1,50.7,30.12,SW,234,1.0,4.0,75,0.00,,,0.00,meteohub,2013-06-12 01:49:00,
2013-06-11 18:50:00,53.1,50.7,30.12,SW,234,2.0,4.0,75,0.00,,,0.00,meteohub,2013-06-12 01:50:00,
2013-06-11 18:52:00,53.8,51.3,30.12,SW,234,6.0,7.0,75,0.00,,,0.00,meteohub,2013-06-12 01:52:00,
2013-06-11 18:53:00,53.1,50.7,30.12,SW,234,1.0,4.0,75,0.00,,,0.00,meteohub,2013-06-12 01:53:00,
2013-06-11 18:54:00,53.1,50.7,30.12,SW,234,1.0,5.0,75,0.00,,,0.00,meteohub,2013-06-12 01:54:00,
2013-06-11 18:55:00,53.1,50.7,30.12,SW,234,4.0,5.0,75,0.00,,,0.00,meteohub,2013-06-12 01:55:00,
2013-06-11 18:56:00,53.1,50.7,30.12,SW,234,2.0,5.0,75,0.00,,,0.00,meteohub,2013-06-12 01:56:00,
2013-06-11 18:57:00,53.1,50.7,30.12,SW,234,3.0,5.0,75,0.00,,,0.00,meteohub,2013-06-12 01:57:00,
2013-06-11 18:58:00,53.1,50.7,30.12,SW,234,2.0,5.0,75,0.00,,,0.00,meteohub,2013-06-12 01:58:00,
2013-06-11 18:59:00,53.8,51.3,30.12,SW,234,4.0,8.0,75,0.00,,,0.00,meteohub,2013-06-12 01:59:00,
2013-06-11 19:01:00,53.1,50.7,30.12,SW,234,2.0,5.0,74,0.00,,,0.00,meteohub,2013-06-12 02:01:00,
2013-06-11 19:02:00,53.1,50.7,30.12,SW,234,3.0,5.0,74,0.00,,,0.00,meteohub,2013-06-12 02:02:00,
2013-06-11 19:04:00,54.0,51.3,30.12,SW,234,3.0,7.0,75,0.00,,,0.00,meteohub,2013-06-12 02:04:00,
2013-06-11 19:06:00,53.2,50.7,30.12,SW,234,3.0,5.0,74,0.00,,,0.00,meteohub,2013-06-12 02:06:00,
2013-06-11 19:07:00,53.2,50.7,30.12,SW,234,3.0,5.0,74,0.00,,,0.00,meteohub,2013-06-12 02:07:00,
2013-06-11 19:08:00,53.4,50.7,30.12,SW,234,3.0,5.0,74,0.00,,,0.00,meteohub,2013-06-12 02:08:00,
2013-06-11 19:09:00,53.8,51.3,30.12,SW,234,2.0,7.0,75,0.00,,,0.00,meteohub,2013-06-12 02:09:00,
2013-06-11 19:14:00,53.8,51.3,30.12,SW,234,3.0,6.0,76,0.00,,,0.00,meteohub,2013-06-12 02:14:00,
2013-06-11 19:19:00,53.6,51.3,30.12,SW,234,4.0,6.0,76,0.00,,,0.00,meteohub,2013-06-12 02:19:00,
2013-06-11 19:25:00,53.6,51.3,30.12,SW,234,1.0,6.0,76,0.00,,,0.00,meteohub,2013-06-12 02:25:00,
2013-06-11 19:31:00,53.4,51.3,30.12,SW,234,3.0,6.0,76,0.00,,,0.00,meteohub,2013-06-12 02:31:00,
2013-06-11 19:32:00,53.4,50.5,30.11,SW,234,5.0,6.0,73,0.00,,,0.00,meteohub,2013-06-12 02:32:00,
2013-06-11 19:33:00,53.4,50.5,30.11,SW,234,4.0,6.0,73,0.00,,,0.00,meteohub,2013-06-12 02:33:00,
2013-06-11 19:34:00,53.4,50.5,30.11,SW,234,3.0,6.0,73,0.00,,,0.00,meteohub,2013-06-12 02:34:00,
2013-06-11 19:35:00,53.4,50.5,30.11,SW,234,2.0,6.0,73,0.00,,,0.00,meteohub,2013-06-12 02:35:00,
2013-06-11 19:36:00,53.4,51.3,30.12,SW,234,0.0,6.0,75,0.00,,,0.00,meteohub,2013-06-12 02:36:00,
2013-06-11 19:37:00,53.4,50.5,30.11,SW,234,2.0,6.0,73,0.00,,,0.00,meteohub,2013-06-12 02:37:00,
2013-06-11 19:38:00,53.4,50.5,30.11,SW,234,4.0,6.0,73,0.00,,,0.00,meteohub,2013-06-12 02:38:00,
2013-06-11 19:39:00,53.4,50.5,30.11,SW,234,1.0,6.0,73,0.00,,,0.00,meteohub,2013-06-12 02:39:00,
2013-06-11 19:40:00,53.4,50.5,30.11,SW,234,3.0,6.0,73,0.00,,,0.00,meteohub,2013-06-12 02:40:00,
2013-06-11 19:41:00,53.4,50.5,30.11,SW,234,2.0,6.0,73,0.00,,,0.00,meteohub,2013-06-12 02:41:00,
2013-06-11 19:42:00,53.4,51.1,30.12,SW,234,4.0,6.0,75,0.00,,,0.00,meteohub,2013-06-12 02:42:00,
2013-06-11 19:43:00,53.4,50.5,30.11,SW,234,4.0,6.0,73,0.00,,,0.00,meteohub,2013-06-12 02:43:00,
2013-06-11 19:44:00,53.4,50.5,30.11,SW,234,2.0,6.0,73,0.00,,,0.00,meteohub,2013-06-12 02:44:00,
2013-06-11 19:45:00,53.4,50.5,30.11,SW,234,1.0,7.0,73,0.00,,,0.00,meteohub,2013-06-12 02:45:00,
2013-06-11 19:46:00,53.4,50.5,30.11,SW,234,2.0,7.0,73,0.00,,,0.00,meteohub,2013-06-12 02:46:00,
2013-06-11 19:47:00,53.6,51.1,30.12,SW,234,0.0,4.0,75,0.00,,,0.00,meteohub,2013-06-12 02:47:00,
2013-06-11 19:48:00,53.4,50.5,30.11,SW,234,2.0,7.0,73,0.00,,,0.00,meteohub,2013-06-12 02:48:00,
2013-06-11 19:49:00,53.4,50.5,30.11,SW,234,4.0,7.0,72,0.00,,,0.00,meteohub,2013-06-12 02:49:00,
2013-06-11 19:50:00,53.4,50.5,30.11,SW,234,2.0,7.0,72,0.00,,,0.00,meteohub,2013-06-12 02:50:00,
2013-06-11 19:51:00,53.4,50.5,30.11,SW,234,4.0,7.0,72,0.00,,,0.00,meteohub,2013-06-12 02:51:00,
2013-06-11 19:52:00,53.4,50.5,30.11,SW,234,2.0,7.0,72,0.00,,,0.00,meteohub,2013-06-12 02:52:00,
2013-06-11 19:53:00,53.4,50.5,30.11,SW,234,3.0,7.0,72,0.00,,,0.00,meteohub,2013-06-12 02:53:00,
2013-06-11 19:54:00,53.2,51.1,30.12,SW,234,2.0,5.0,75,0.00,,,0.00,meteohub,2013-06-12 02:54:00,
2013-06-11 19:55:00,53.4,50.4,30.11,SW,234,3.0,7.0,72,0.00,,,0.00,meteohub,2013-06-12 02:55:00,
2013-06-11 19:56:00,53.4,50.4,30.11,SW,234,2.0,5.0,72,0.00,,,0.00,meteohub,2013-06-12 02:56:00,
2013-06-11 19:57:00,53.4,50.4,30.12,SW,234,3.0,5.0,72,0.00,,,0.00,meteohub,2013-06-12 02:57:00,
2013-06-11 19:58:00,53.4,50.4,30.11,SW,234,3.0,5.0,72,0.00,,,0.00,meteohub,2013-06-12 02:58:00,
2013-06-11 19:59:00,53.4,50.4,30.11,SW,234,2.0,5.0,72,0.00,,,0.00,meteohub,2013-06-12 02:59:00,
2013-06-11 20:00:00,53.4,50.4,30.12,SW,234,3.0,5.0,72,0.00,,,0.00,meteohub,2013-06-12 03:00:00,
2013-06-11 20:01:00,53.2,51.1,30.12,SW,234,2.0,5.0,75,0.00,,,0.00,meteohub,2013-06-12 03:01:00,
2013-06-11 20:02:00,53.2,50.4,30.12,SW,234,0.0,5.0,72,0.00,,,0.00,meteohub,2013-06-12 03:02:00,
2013-06-11 20:03:00,53.2,50.4,30.12,SW,234,1.0,5.0,73,0.00,,,0.00,meteohub,2013-06-12 03:03:00,
2013-06-11 20:04:00,53.2,50.4,30.12,SW,234,3.0,5.0,73,0.00,,,0.00,meteohub,2013-06-12 03:04:00,
2013-06-11 20:05:00,53.1,50.4,30.12,SW,234,3.0,5.0,73,0.00,,,0.00,meteohub,2013-06-12 03:05:00,
2013-06-11 20:06:00,53.1,50.4,30.12,SW,234,3.0,5.0,73,0.00,,,0.00,meteohub,2013-06-12 03:06:00,
2013-06-11 20:07:00,53.1,50.7,30.12,SW,234,2.0,5.0,75,0.00,,,0.00,meteohub,2013-06-12 03:07:00,
2013-06-11 20:08:00,52.7,50.4,30.12,SW,234,3.0,5.0,73,0.00,,,0.00,meteohub,2013-06-12 03:08:00,
2013-06-11 20:09:00,52.5,50.4,30.12,SW,234,2.0,5.0,73,0.00,,,0.00,meteohub,2013-06-12 03:09:00,
2013-06-11 20:10:00,52.3,50.4,30.12,SW,234,2.0,5.0,73,0.00,,,0.00,meteohub,2013-06-12 03:10:00,
2013-06-11 20:11:00,52.3,50.4,30.12,SW,234,3.0,5.0,73,0.00,,,0.00,meteohub,2013-06-12 03:11:00,
2013-06-11 20:12:00,53.1,50.7,30.12,SW,234,2.0,5.0,75,0.00,,,0.00,meteohub,2013-06-12 03:12:00,
2013-06-11 20:13:00,52.2,50.4,30.12,SW,234,2.0,5.0,73,0.00,,,0.00,meteohub,2013-06-12 03:13:00,
2013-06-11 20:14:00,52.2,50.4,30.12,SW,234,2.0,5.0,73,0.00,,,0.00,meteohub,2013-06-12 03:14:00,
2013-06-11 20:15:00,52.0,50.4,30.12,SW,234,2.0,5.0,73,0.00,,,0.00,meteohub,2013-06-12 03:15:00,
2013-06-11 20:17:00,53.1,50.7,30.12,SW,234,2.0,4.0,75,0.00,,,0.00,meteohub,2013-06-12 03:17:00,
2013-06-11 20:18:00,52.0,50.4,30.12,SW,234,3.0,5.0,72,0.00,,,0.00,meteohub,2013-06-12 03:18:00,
2013-06-11 20:19:00,52.0,50.4,30.12,SW,234,2.0,5.0,72,0.00,,,0.00,meteohub,2013-06-12 03:19:00,
2013-06-11 20:20:00,52.0,50.4,30.12,SW,234,2.0,5.0,71,0.00,,,0.00,meteohub,2013-06-12 03:20:00,
2013-06-11 20:21:00,52.2,50.4,30.12,SW,234,3.0,5.0,71,0.00,,,0.00,meteohub,2013-06-12 03:21:00,
2013-06-11 20:22:00,52.2,50.4,30.12,SW,234,3.0,5.0,71,0.00,,,0.00,meteohub,2013-06-12 03:22:00,
2013-06-11 20:24:00,53.1,50.7,30.12,SW,234,2.0,5.0,75,0.00,,,0.00,meteohub,2013-06-12 03:24:00,
2013-06-11 20:25:00,52.3,50.2,30.12,SW,234,4.0,5.0,70,0.00,,,0.00,meteohub,2013-06-12 03:25:00,
2013-06-11 20:28:00,52.3,50.2,30.12,SW,234,4.0,5.0,70,0.00,,,0.00,meteohub,2013-06-12 03:28:00,
2013-06-11 20:29:00,53.1,50.7,30.12,SW,234,2.0,5.0,74,0.00,,,0.00,meteohub,2013-06-12 03:29:00,
2013-06-11 20:30:00,52.3,50.2,30.12,SW,234,3.0,6.0,70,0.00,,,0.00,meteohub,2013-06-12 03:30:00,
2013-06-11 20:32:00,52.5,50.2,30.12,SW,234,3.0,6.0,70,0.00,,,0.00,meteohub,2013-06-12 03:32:00,
2013-06-11 20:34:00,53.2,50.7,30.12,SW,234,3.0,5.0,74,0.00,,,0.00,meteohub,2013-06-12 03:34:00,
2013-06-11 20:36:00,52.5,50.2,30.12,SW,234,3.0,6.0,70,0.00,,,0.00,meteohub,2013-06-12 03:36:00,
2013-06-11 20:37:00,52.5,49.6,30.12,SW,234,4.0,6.0,70,0.00,,,0.00,meteohub,2013-06-12 03:37:00,
2013-06-11 20:39:00,53.4,50.7,30.12,SW,234,5.0,5.0,73,0.00,,,0.00,meteohub,2013-06-12 03:39:00,
2013-06-11 20:42:00,52.7,50.2,30.12,SW,234,3.0,7.0,70,0.00,,,0.00,meteohub,2013-06-12 03:42:00,
2013-06-11 20:45:00,53.2,50.7,30.12,SW,234,2.0,6.0,74,0.00,,,0.00,meteohub,2013-06-12 03:45:00,
2013-06-11 20:48:00,52.7,50.2,30.12,SW,234,0.0,7.0,70,0.00,,,0.00,meteohub,2013-06-12 03:48:00,
2013-06-11 20:50:00,53.2,50.7,30.11,SW,234,4.0,6.0,73,0.00,,,0.00,meteohub,2013-06-12 03:50:00,
2013-06-11 20:52:00,52.7,49.6,30.12,SW,234,0.0,7.0,70,0.00,,,0.00,meteohub,2013-06-12 03:52:00,
2013-06-11 20:53:00,52.7,49.6,30.12,SW,234,0.0,7.0,70,0.00,,,0.00,meteohub,2013-06-12 03:53:00,
2013-06-11 20:54:00,52.5,49.6,30.12,SW,234,0.0,7.0,70,0.00,,,0.00,meteohub,2013-06-12 03:54:00,
2013-06-11 20:55:00,53.4,50.7,30.11,SW,234,4.0,6.0,73,0.00,,,0.00,meteohub,2013-06-12 03:55:00,
2013-06-11 20:56:00,52.5,49.6,30.12,SW,234,0.0,7.0,70,0.00,,,0.00,meteohub,2013-06-12 03:56:00,
2013-06-11 20:59:00,52.5,49.6,30.12,SW,234,0.0,7.0,70,0.00,,,0.00,meteohub,2013-06-12 03:59:00,
2013-06-11 21:00:00,53.4,50.5,30.11,SW,234,1.0,6.0,73,0.00,,,0.00,meteohub,2013-06-12 04:00:00,
2013-06-11 21:06:00,52.3,49.6,30.12,SW,234,2.0,3.0,70,0.00,,,0.00,meteohub,2013-06-12 04:06:00,
2013-06-11 21:43:00,52.2,50.4,30.12,SW,234,2.0,5.0,73,0.00,,,0.00,meteohub,2013-06-12 04:43:00,
2013-06-11 21:49:00,52.2,50.4,30.12,SW,234,4.0,5.0,71,0.00,,,0.00,meteohub,2013-06-12 04:49:00,
2013-06-11 21:54:00,52.3,50.2,30.12,SW,234,2.0,5.0,70,0.00,,,0.00,meteohub,2013-06-12 04:54:00,
2013-06-11 22:00:00,52.3,50.2,30.12,SW,234,4.0,6.0,70,0.00,,,0.00,meteohub,2013-06-12 05:00:00,
2013-06-11 22:05:00,52.5,50.2,30.12,SW,234,3.0,6.0,70,0.00,,,0.00,meteohub,2013-06-12 05:05:00,
2013-06-11 22:10:00,52.7,50.2,30.12,SW,234,0.0,7.0,70,0.00,,,0.00,meteohub,2013-06-12 05:10:00,
2013-06-11 22:15:00,52.7,50.2,30.12,SW,234,2.0,7.0,70,0.00,,,0.00,meteohub,2013-06-12 05:15:00,
2013-06-11 22:21:00,52.7,49.6,30.12,SW,234,0.0,7.0,70,0.00,,,0.00,meteohub,2013-06-12 05:21:00,
2013-06-11 22:26:00,52.5,49.6,30.13,SW,234,0.0,7.0,70,0.00,,,0.00,meteohub,2013-06-12 05:26:00,
2013-06-11 22:31:00,52.3,49.6,30.12,SW,234,0.0,3.0,70,0.00,,,0.00,meteohub,2013-06-12 05:31:00,
2013-06-11 22:32:00,49.8,49.3,30.12,SW,234,0.0,3.0,70,0.00,,,0.00,meteohub,2013-06-12 05:32:00,
2013-06-11 22:36:00,52.3,49.6,30.12,SW,234,2.0,3.0,70,0.00,,,0.00,meteohub,2013-06-12 05:36:00,
2013-06-11 22:39:00,49.6,49.3,30.12,SW,234,0.0,3.0,70,0.00,,,0.00,meteohub,2013-06-12 05:39:00,
2013-06-11 22:40:00,49.6,49.3,30.12,SW,234,0.0,2.0,70,0.00,,,0.00,meteohub,2013-06-12 05:40:00,
2013-06-11 22:42:00,52.3,49.6,30.12,SW,234,0.0,4.0,70,0.00,,,0.00,meteohub,2013-06-12 05:42:00,
2013-06-11 22:43:00,49.6,49.3,30.12,SW,234,0.0,2.0,69,0.00,,,0.00,meteohub,2013-06-12 05:43:00,
2013-06-11 22:46:00,49.6,49.3,30.12,SW,234,0.0,2.0,69,0.00,,,0.00,meteohub,2013-06-12 05:46:00,
2013-06-11 22:47:00,52.3,49.5,30.12,SW,234,0.0,4.0,70,0.00,,,0.00,meteohub,2013-06-12 05:47:00,
2013-06-11 22:48:00,49.5,49.3,30.12,SW,234,0.0,2.0,69,0.00,,,0.00,meteohub,2013-06-12 05:48:00,
2013-06-11 22:52:00,52.2,49.5,30.12,SW,234,0.0,3.0,70,0.00,,,0.00,meteohub,2013-06-12 05:52:00,
2013-06-11 22:53:00,49.5,49.1,30.12,SW,234,0.0,1.0,69,0.00,,,0.00,meteohub,2013-06-12 05:53:00,
2013-06-11 22:54:00,49.5,49.1,30.12,SW,234,2.0,2.0,69,0.00,,,0.00,meteohub,2013-06-12 05:54:00,
2013-06-11 22:56:00,49.3,49.1,30.12,SW,234,1.0,1.0,69,0.00,,,0.00,meteohub,2013-06-12 05:56:00,
2013-06-11 22:57:00,49.3,49.1,30.12,SW,234,0.0,1.0,69,0.00,,,0.00,meteohub,2013-06-12 05:57:00,
2013-06-11 22:58:00,52.0,49.5,30.12,SW,234,0.0,3.0,71,0.00,,,0.00,meteohub,2013-06-12 05:58:00,
2013-06-11 22:59:00,49.3,49.1,30.12,SW,234,0.0,1.0,69,0.00,,,0.00,meteohub,2013-06-12 05:59:00,
2013-06-11 23:00:00,49.3,49.1,30.12,SW,234,0.0,4.0,69,0.00,,,0.00,meteohub,2013-06-12 06:00:00,
2013-06-11 23:01:00,49.3,49.1,30.12,SW,234,0.0,4.0,69,0.00,,,0.00,meteohub,2013-06-12 06:01:00,
2013-06-11 23:02:00,49.3,49.1,30.12,SW,234,0.0,4.0,69,0.00,,,0.00,meteohub,2013-06-12 06:02:00,
2013-06-11 23:03:00,51.6,49.5,30.12,SW,234,2.0,3.0,71,0.00,,,0.00,meteohub,2013-06-12 06:03:00,
2013-06-11 23:05:00,49.3,49.1,30.12,SW,234,0.0,4.0,69,0.00,,,0.00,meteohub,2013-06-12 06:05:00,
2013-06-11 23:06:00,49.3,49.1,30.12,SW,234,0.0,4.0,68,0.00,,,0.00,meteohub,2013-06-12 06:06:00,
2013-06-11 23:07:00,49.3,49.1,30.12,SW,234,0.0,4.0,68,0.00,,,0.00,meteohub,2013-06-12 06:07:00,
2013-06-11 23:08:00,51.4,49.5,30.12,SW,234,0.0,3.0,70,0.00,,,0.00,meteohub,2013-06-12 06:08:00,
2013-06-11 23:09:00,49.3,49.1,30.12,SW,234,0.0,4.0,69,0.00,,,0.00,meteohub,2013-06-12 06:09:00,
2013-06-11 23:10:00,49.3,49.1,30.12,SW,234,0.0,4.0,69,0.00,,,0.00,meteohub,2013-06-12 06:10:00,
2013-06-11 23:11:00,49.3,49.1,30.12,SW,234,0.0,4.0,69,0.00,,,0.00,meteohub,2013-06-12 06:11:00,
2013-06-11 23:12:00,49.3,49.1,30.12,SW,234,0.0,4.0,68,0.00,,,0.00,meteohub,2013-06-12 06:12:00,
2013-06-11 23:13:00,51.3,49.5,30.12,SW,234,0.0,3.0,70,0.00,,,0.00,meteohub,2013-06-12 06:13:00,
2013-06-11 23:14:00,49.3,49.1,30.12,SW,234,0.0,4.0,68,0.00,,,0.00,meteohub,2013-06-12 06:14:00,
2013-06-11 23:16:00,49.3,49.1,30.11,SW,234,0.0,4.0,68,0.00,,,0.00,meteohub,2013-06-12 06:16:00,
2013-06-11 23:17:00,49.3,49.1,30.12,SW,234,2.0,4.0,68,0.00,,,0.00,meteohub,2013-06-12 06:17:00,
2013-06-11 23:18:00,49.3,49.1,30.11,SW,234,0.0,4.0,68,0.00,,,0.00,meteohub,2013-06-12 06:18:00,
2013-06-11 23:19:00,51.1,49.3,30.12,SW,234,0.0,3.0,70,0.00,,,0.00,meteohub,2013-06-12 06:19:00,
2013-06-11 23:20:00,49.3,49.1,30.12,SW,234,0.0,2.0,68,0.00,,,0.00,meteohub,2013-06-12 06:20:00,
2013-06-11 23:21:00,49.3,49.1,30.11,SW,234,0.0,2.0,68,0.00,,,0.00,meteohub,2013-06-12 06:21:00,
2013-06-11 23:23:00,49.1,49.1,30.12,SW,234,0.0,2.0,68,0.00,,,0.00,meteohub,2013-06-12 06:23:00,
2013-06-11 23:24:00,50.9,49.3,30.12,SW,234,0.0,3.0,71,0.00,,,0.00,meteohub,2013-06-12 06:24:00,
2013-06-11 23:25:00,49.1,49.1,30.11,SW,234,0.0,2.0,68,0.00,,,0.00,meteohub,2013-06-12 06:25:00,
2013-06-11 23:26:00,49.1,49.1,30.11,SW,234,0.0,2.0,68,0.00,,,0.00,meteohub,2013-06-12 06:26:00,
2013-06-11 23:29:00,50.5,49.3,30.12,SW,234,0.0,3.0,71,0.00,,,0.00,meteohub,2013-06-12 06:29:00,
2013-06-11 23:32:00,48.9,48.9,30.11,SW,234,0.0,3.0,68,0.00,,,0.00,meteohub,2013-06-12 06:32:00,
2013-06-11 23:33:00,48.9,48.9,30.11,SW,234,0.0,3.0,68,0.00,,,0.00,meteohub,2013-06-12 06:33:00,
2013-06-11 23:34:00,50.4,49.3,30.12,SW,234,0.0,3.0,70,0.00,,,0.00,meteohub,2013-06-12 06:34:00,
2013-06-11 23:35:00,48.9,48.9,30.11,SW,234,1.0,3.0,68,0.00,,,0.00,meteohub,2013-06-12 06:35:00,
2013-06-11 23:37:00,48.9,48.9,30.11,SW,234,0.0,3.0,68,0.00,,,0.00,meteohub,2013-06-12 06:37:00,
2013-06-11 23:39:00,48.7,48.9,30.11,SW,234,0.0,3.0,68,0.00,,,0.00,meteohub,2013-06-12 06:39:00,
2013-06-11 23:40:00,50.4,49.3,30.12,SW,234,1.0,2.0,70,0.00,,,0.00,meteohub,2013-06-12 06:40:00,
2013-06-11 23:42:00,48.7,48.9,30.11,SW,234,0.0,4.0,68,0.00,,,0.00,meteohub,2013-06-12 06:42:00,
2013-06-11 23:43:00,48.7,48.9,30.11,SW,234,1.0,4.0,68,0.00,,,0.00,meteohub,2013-06-12 06:43:00,
2013-06-11 23:45:00,50.2,49.3,30.12,SW,234,0.0,2.0,70,0.00,,,0.00,meteohub,2013-06-12 06:45:00,
2013-06-11 23:46:00,48.7,48.9,30.11,SW,234,1.0,4.0,68,0.00,,,0.00,meteohub,2013-06-12 06:46:00,
2013-06-11 23:48:00,48.7,48.9,30.11,SW,234,1.0,4.0,68,0.00,,,0.00,meteohub,2013-06-12 06:48:00,
2013-06-11 23:50:00,50.0,49.3,30.12,SW,234,1.0,4.0,70,0.00,,,0.00,meteohub,2013-06-12 06:50:00,
2013-06-11 23:52:00,48.7,48.9,30.11,SW,234,0.0,4.0,68,0.00,,,0.00,meteohub,2013-06-12 06:52:00,
2013-06-11 23:55:00,49.8,49.3,30.13,SW,234,0.0,4.0,70,0.00,,,0.00,meteohub,2013-06-12 06:55:00,
2013-06-11 23:58:00,48.9,48.9,30.11,SW,234,0.0,4.0,67,0.00,,,0.00,meteohub,2013-06-12 06:58:00,